<?xml version="1.0" encoding="UTF-8" standalone="yes"?>
<gpx
 xmlns="http://www.topografix.com/GPX/1/1"
 creator="OziExplorer Version 3956f - http://www.oziexplorer.com"
 version="1.1"
 xmlns:xsi="http://www.w3.org/2001/XMLSchema-instance"
 xsi:schemaLocation="http://www.topografix.com/GPX/1/1 http://www.topografix.com/GPX/1/1/gpx.xsd">
<metadata>
 <time>2024-11-26T11:41:09Z</time>
 <bounds minlat="31.362470" minlon="34.583320" maxlat="31.403080" maxlon="34.639160"/>
</metadata>
<wpt lat="31.3805200" lon="34.6129500">
 <time>2024-11-26T13:34:02.259Z</time>
 <name>Stoliki</name>
 <sym>Flag, Red</sym>
</wpt>
<wpt lat="31.3765600" lon="34.6165100">
 <time>2024-11-26T13:34:02.287Z</time>
 <name>St\Fin</name>
 <sym>Bike Trail</sym>
</wpt>
<wpt lat="31.3765300" lon="34.6161700">
 <time>2024-11-26T13:34:02.289Z</time>
 <name>Vlevo</name>
 <sym>Flag, Red</sym>
</wpt>
<wpt lat="31.3810200" lon="34.6168800">
 <time>2024-11-26T13:34:02.290Z</time>
 <name>Vlevo</name>
 <sym>Flag, Red</sym>
</wpt>
<wpt lat="31.3801100" lon="34.6158000">
 <time>2024-11-26T13:34:02.291Z</time>
 <name>Vlevo</name>
 <sym>Flag, Red</sym>
</wpt>
<trk>
 <name>Grar+Sharsheret_Sin+Jip_28km.200m</name>
 <desc>Grar+Sharsheret_Sin+Jip_28km.200m</desc>
<trkseg>
<trkpt lat="31.3764500" lon="34.6165500">
<ele>100.309998</ele>
<time>2024-11-26T13:34:02.291Z</time>
</trkpt>
<trkpt lat="31.3764400" lon="34.6164800">
<ele>101.190002</ele>
<time>2024-11-26T13:34:02.291Z</time>
</trkpt>
<trkpt lat="31.3764200" lon="34.6163600">
<ele>102.469994</ele>
<time>2024-11-26T13:34:02.291Z</time>
</trkpt>
<trkpt lat="31.3764700" lon="34.6162600">
<ele>101.639999</ele>
<time>2024-11-26T13:34:02.291Z</time>
</trkpt>
<trkpt lat="31.3765100" lon="34.6161700">
<ele>101.160004</ele>
<time>2024-11-26T13:34:02.291Z</time>
</trkpt>
<trkpt lat="31.3765100" lon="34.6160800">
<ele>101.050003</ele>
<time>2024-11-26T13:34:02.291Z</time>
</trkpt>
<trkpt lat="31.3765400" lon="34.6159300">
<ele>100.670006</ele>
<time>2024-11-26T13:34:02.291Z</time>
</trkpt>
<trkpt lat="31.3765900" lon="34.6158300">
<ele>100.730003</ele>
<time>2024-11-26T13:34:02.291Z</time>
</trkpt>
<trkpt lat="31.3766900" lon="34.6157000">
<ele>101.040001</ele>
<time>2024-11-26T13:34:02.291Z</time>
</trkpt>
<trkpt lat="31.3767600" lon="34.6154100">
<ele>100.809998</ele>
<time>2024-11-26T13:34:02.291Z</time>
</trkpt>
<trkpt lat="31.3767500" lon="34.6151900">
<ele>98.590004</ele>
<time>2024-11-26T13:34:02.291Z</time>
</trkpt>
<trkpt lat="31.3766700" lon="34.6150000">
<ele>94.040001</ele>
<time>2024-11-26T13:34:02.291Z</time>
</trkpt>
<trkpt lat="31.3764100" lon="34.6150000">
<ele>93.080002</ele>
<time>2024-11-26T13:34:02.291Z</time>
</trkpt>
<trkpt lat="31.3763000" lon="34.6150000">
<ele>92.040001</ele>
<time>2024-11-26T13:34:02.291Z</time>
</trkpt>
<trkpt lat="31.3759100" lon="34.6148800">
<ele>92.020004</ele>
<time>2024-11-26T13:34:02.291Z</time>
</trkpt>
<trkpt lat="31.3755100" lon="34.6148800">
<ele>97.320007</ele>
<time>2024-11-26T13:34:02.291Z</time>
</trkpt>
<trkpt lat="31.3751500" lon="34.6146400">
<ele>96.199997</ele>
<time>2024-11-26T13:34:02.291Z</time>
</trkpt>
<trkpt lat="31.3755400" lon="34.6143400">
<ele>91.430000</ele>
<time>2024-11-26T13:34:02.291Z</time>
</trkpt>
<trkpt lat="31.3762000" lon="34.6142200">
<ele>94.070000</ele>
<time>2024-11-26T13:34:02.291Z</time>
</trkpt>
<trkpt lat="31.3762300" lon="34.6140700">
<ele>94.130005</ele>
<time>2024-11-26T13:34:02.291Z</time>
</trkpt>
<trkpt lat="31.3762400" lon="34.6140200">
<ele>93.970001</ele>
<time>2024-11-26T13:34:02.291Z</time>
</trkpt>
<trkpt lat="31.3762600" lon="34.6139100">
<ele>93.550003</ele>
<time>2024-11-26T13:34:02.291Z</time>
</trkpt>
<trkpt lat="31.3765100" lon="34.6138100">
<ele>92.839996</ele>
<time>2024-11-26T13:34:02.291Z</time>
</trkpt>
<trkpt lat="31.3765800" lon="34.6135800">
<ele>92.910004</ele>
<time>2024-11-26T13:34:02.291Z</time>
</trkpt>
<trkpt lat="31.3766100" lon="34.6134200">
<ele>94.169998</ele>
<time>2024-11-26T13:34:02.291Z</time>
</trkpt>
<trkpt lat="31.3767600" lon="34.6132100">
<ele>96.999992</ele>
<time>2024-11-26T13:34:02.291Z</time>
</trkpt>
<trkpt lat="31.3767500" lon="34.6129800">
<ele>98.410004</ele>
<time>2024-11-26T13:34:02.291Z</time>
</trkpt>
<trkpt lat="31.3767500" lon="34.6127200">
<ele>97.820000</ele>
<time>2024-11-26T13:34:02.291Z</time>
</trkpt>
<trkpt lat="31.3766500" lon="34.6125800">
<ele>95.989998</ele>
<time>2024-11-26T13:34:02.291Z</time>
</trkpt>
<trkpt lat="31.3766800" lon="34.6124800">
<ele>96.440002</ele>
<time>2024-11-26T13:34:02.291Z</time>
</trkpt>
<trkpt lat="31.3767900" lon="34.6123300">
<ele>98.430000</ele>
<time>2024-11-26T13:34:02.291Z</time>
</trkpt>
<trkpt lat="31.3768000" lon="34.6121000">
<ele>99.360001</ele>
<time>2024-11-26T13:34:02.291Z</time>
</trkpt>
<trkpt lat="31.3767700" lon="34.6120200">
<ele>99.709999</ele>
<time>2024-11-26T13:34:02.291Z</time>
</trkpt>
<trkpt lat="31.3766900" lon="34.6116900">
<ele>99.250000</ele>
<time>2024-11-26T13:34:02.291Z</time>
</trkpt>
<trkpt lat="31.3766800" lon="34.6116600">
<ele>99.119995</ele>
<time>2024-11-26T13:34:02.291Z</time>
</trkpt>
<trkpt lat="31.3766500" lon="34.6116100">
<ele>98.680008</ele>
<time>2024-11-26T13:34:02.291Z</time>
</trkpt>
<trkpt lat="31.3767500" lon="34.6115400">
<ele>99.439995</ele>
<time>2024-11-26T13:34:02.291Z</time>
</trkpt>
<trkpt lat="31.3769400" lon="34.6115900">
<ele>101.680000</ele>
<time>2024-11-26T13:34:02.291Z</time>
</trkpt>
<trkpt lat="31.3772300" lon="34.6115900">
<ele>94.320000</ele>
<time>2024-11-26T13:34:02.291Z</time>
</trkpt>
<trkpt lat="31.3774000" lon="34.6114700">
<ele>95.080002</ele>
<time>2024-11-26T13:34:02.291Z</time>
</trkpt>
<trkpt lat="31.3774500" lon="34.6113500">
<ele>94.680000</ele>
<time>2024-11-26T13:34:02.291Z</time>
</trkpt>
<trkpt lat="31.3775000" lon="34.6112300">
<ele>93.279999</ele>
<time>2024-11-26T13:34:02.291Z</time>
</trkpt>
<trkpt lat="31.3775200" lon="34.6111000">
<ele>91.900002</ele>
<time>2024-11-26T13:34:02.291Z</time>
</trkpt>
<trkpt lat="31.3776000" lon="34.6109600">
<ele>91.680000</ele>
<time>2024-11-26T13:34:02.291Z</time>
</trkpt>
<trkpt lat="31.3776600" lon="34.6108100">
<ele>91.680000</ele>
<time>2024-11-26T13:34:02.291Z</time>
</trkpt>
<trkpt lat="31.3775700" lon="34.6102700">
<ele>84.380005</ele>
<time>2024-11-26T13:34:02.291Z</time>
</trkpt>
<trkpt lat="31.3776300" lon="34.6097300">
<ele>89.100006</ele>
<time>2024-11-26T13:34:02.291Z</time>
</trkpt>
<trkpt lat="31.3777000" lon="34.6095500">
<ele>88.540001</ele>
<time>2024-11-26T13:34:02.291Z</time>
</trkpt>
<trkpt lat="31.3778400" lon="34.6094500">
<ele>85.360001</ele>
<time>2024-11-26T13:34:02.291Z</time>
</trkpt>
<trkpt lat="31.3778500" lon="34.6093000">
<ele>88.200005</ele>
<time>2024-11-26T13:34:02.291Z</time>
</trkpt>
<trkpt lat="31.3778500" lon="34.6091200">
<ele>91.209999</ele>
<time>2024-11-26T13:34:02.291Z</time>
</trkpt>
<trkpt lat="31.3778600" lon="34.6088500">
<ele>92.740005</ele>
<time>2024-11-26T13:34:02.291Z</time>
</trkpt>
<trkpt lat="31.3779300" lon="34.6086500">
<ele>93.680000</ele>
<time>2024-11-26T13:34:02.291Z</time>
</trkpt>
<trkpt lat="31.3779900" lon="34.6085700">
<ele>92.760002</ele>
<time>2024-11-26T13:34:02.291Z</time>
</trkpt>
<trkpt lat="31.3779800" lon="34.6084000">
<ele>93.520004</ele>
<time>2024-11-26T13:34:02.291Z</time>
</trkpt>
<trkpt lat="31.3779500" lon="34.6081700">
<ele>94.349998</ele>
<time>2024-11-26T13:34:02.291Z</time>
</trkpt>
<trkpt lat="31.3779000" lon="34.6079100">
<ele>94.139999</ele>
<time>2024-11-26T13:34:02.291Z</time>
</trkpt>
<trkpt lat="31.3778400" lon="34.6077200">
<ele>94.059998</ele>
<time>2024-11-26T13:34:02.291Z</time>
</trkpt>
<trkpt lat="31.3777900" lon="34.6075500">
<ele>94.089996</ele>
<time>2024-11-26T13:34:02.291Z</time>
</trkpt>
<trkpt lat="31.3777000" lon="34.6070700">
<ele>97.110001</ele>
<time>2024-11-26T13:34:02.291Z</time>
</trkpt>
<trkpt lat="31.3776800" lon="34.6067300">
<ele>98.250000</ele>
<time>2024-11-26T13:34:02.291Z</time>
</trkpt>
<trkpt lat="31.3776600" lon="34.6064200">
<ele>98.180000</ele>
<time>2024-11-26T13:34:02.291Z</time>
</trkpt>
<trkpt lat="31.3776100" lon="34.6059800">
<ele>96.470001</ele>
<time>2024-11-26T13:34:02.291Z</time>
</trkpt>
<trkpt lat="31.3772700" lon="34.6055200">
<ele>101.409996</ele>
<time>2024-11-26T13:34:02.291Z</time>
</trkpt>
<trkpt lat="31.3770000" lon="34.6054400">
<ele>106.549995</ele>
<time>2024-11-26T13:34:02.291Z</time>
</trkpt>
<trkpt lat="31.3768900" lon="34.6051200">
<ele>102.610001</ele>
<time>2024-11-26T13:34:02.291Z</time>
</trkpt>
<trkpt lat="31.3769200" lon="34.6049700">
<ele>98.930000</ele>
<time>2024-11-26T13:34:02.291Z</time>
</trkpt>
<trkpt lat="31.3771100" lon="34.6049700">
<ele>96.760002</ele>
<time>2024-11-26T13:34:02.291Z</time>
</trkpt>
<trkpt lat="31.3771900" lon="34.6047600">
<ele>92.229996</ele>
<time>2024-11-26T13:34:02.291Z</time>
</trkpt>
<trkpt lat="31.3771100" lon="34.6045600">
<ele>92.089996</ele>
<time>2024-11-26T13:34:02.291Z</time>
</trkpt>
<trkpt lat="31.3769200" lon="34.6043600">
<ele>95.299995</ele>
<time>2024-11-26T13:34:02.291Z</time>
</trkpt>
<trkpt lat="31.3766700" lon="34.6041700">
<ele>96.999992</ele>
<time>2024-11-26T13:34:02.291Z</time>
</trkpt>
<trkpt lat="31.3766500" lon="34.6041100">
<ele>97.500000</ele>
<time>2024-11-26T13:34:02.291Z</time>
</trkpt>
<trkpt lat="31.3766400" lon="34.6039900">
<ele>98.339996</ele>
<time>2024-11-26T13:34:02.291Z</time>
</trkpt>
<trkpt lat="31.3766500" lon="34.6039000">
<ele>98.919998</ele>
<time>2024-11-26T13:34:02.291Z</time>
</trkpt>
<trkpt lat="31.3766800" lon="34.6038600">
<ele>99.259995</ele>
<time>2024-11-26T13:34:02.291Z</time>
</trkpt>
<trkpt lat="31.3768900" lon="34.6038400">
<ele>100.159996</ele>
<time>2024-11-26T13:34:02.291Z</time>
</trkpt>
<trkpt lat="31.3770900" lon="34.6038300">
<ele>99.680000</ele>
<time>2024-11-26T13:34:02.291Z</time>
</trkpt>
<trkpt lat="31.3771700" lon="34.6037700">
<ele>99.349998</ele>
<time>2024-11-26T13:34:02.291Z</time>
</trkpt>
<trkpt lat="31.3771900" lon="34.6034600">
<ele>99.349998</ele>
<time>2024-11-26T13:34:02.291Z</time>
</trkpt>
<trkpt lat="31.3771000" lon="34.6031600">
<ele>99.970001</ele>
<time>2024-11-26T13:34:02.291Z</time>
</trkpt>
<trkpt lat="31.3770500" lon="34.6029800">
<ele>99.429993</ele>
<time>2024-11-26T13:34:02.291Z</time>
</trkpt>
<trkpt lat="31.3768800" lon="34.6029800">
<ele>101.059998</ele>
<time>2024-11-26T13:34:02.291Z</time>
</trkpt>
<trkpt lat="31.3766800" lon="34.6029700">
<ele>102.290001</ele>
<time>2024-11-26T13:34:02.291Z</time>
</trkpt>
<trkpt lat="31.3766400" lon="34.6028100">
<ele>100.909996</ele>
<time>2024-11-26T13:34:02.291Z</time>
</trkpt>
<trkpt lat="31.3766200" lon="34.6026900">
<ele>101.389999</ele>
<time>2024-11-26T13:34:02.291Z</time>
</trkpt>
<trkpt lat="31.3766900" lon="34.6025200">
<ele>102.980003</ele>
<time>2024-11-26T13:34:02.291Z</time>
</trkpt>
<trkpt lat="31.3764800" lon="34.6019300">
<ele>102.320000</ele>
<time>2024-11-26T13:34:02.291Z</time>
</trkpt>
<trkpt lat="31.3761200" lon="34.6017400">
<ele>106.770004</ele>
<time>2024-11-26T13:34:02.291Z</time>
</trkpt>
<trkpt lat="31.3758300" lon="34.6017400">
<ele>110.639999</ele>
<time>2024-11-26T13:34:02.291Z</time>
</trkpt>
<trkpt lat="31.3756400" lon="34.6017900">
<ele>105.219994</ele>
<time>2024-11-26T13:34:02.291Z</time>
</trkpt>
<trkpt lat="31.3754000" lon="34.6017200">
<ele>99.480003</ele>
<time>2024-11-26T13:34:02.291Z</time>
</trkpt>
<trkpt lat="31.3752100" lon="34.6013100">
<ele>98.659996</ele>
<time>2024-11-26T13:34:02.291Z</time>
</trkpt>
<trkpt lat="31.3751200" lon="34.6008500">
<ele>104.230003</ele>
<time>2024-11-26T13:34:02.291Z</time>
</trkpt>
<trkpt lat="31.3745800" lon="34.6006500">
<ele>103.699997</ele>
<time>2024-11-26T13:34:02.291Z</time>
</trkpt>
<trkpt lat="31.3742500" lon="34.6006700">
<ele>105.880005</ele>
<time>2024-11-26T13:34:02.291Z</time>
</trkpt>
<trkpt lat="31.3740000" lon="34.6007700">
<ele>104.650002</ele>
<time>2024-11-26T13:34:02.291Z</time>
</trkpt>
<trkpt lat="31.3738700" lon="34.6007700">
<ele>103.130005</ele>
<time>2024-11-26T13:34:02.291Z</time>
</trkpt>
<trkpt lat="31.3738500" lon="34.6005500">
<ele>103.570007</ele>
<time>2024-11-26T13:34:02.291Z</time>
</trkpt>
<trkpt lat="31.3738400" lon="34.6003800">
<ele>103.059998</ele>
<time>2024-11-26T13:34:02.291Z</time>
</trkpt>
<trkpt lat="31.3737300" lon="34.6002600">
<ele>102.190002</ele>
<time>2024-11-26T13:34:02.291Z</time>
</trkpt>
<trkpt lat="31.3734600" lon="34.6002500">
<ele>102.320000</ele>
<time>2024-11-26T13:34:02.291Z</time>
</trkpt>
<trkpt lat="31.3733800" lon="34.6001300">
<ele>102.389999</ele>
<time>2024-11-26T13:34:02.291Z</time>
</trkpt>
<trkpt lat="31.3733700" lon="34.5998300">
<ele>103.059998</ele>
<time>2024-11-26T13:34:02.291Z</time>
</trkpt>
<trkpt lat="31.3733300" lon="34.5997800">
<ele>103.740005</ele>
<time>2024-11-26T13:34:02.291Z</time>
</trkpt>
<trkpt lat="31.3732600" lon="34.5997100">
<ele>102.570000</ele>
<time>2024-11-26T13:34:02.291Z</time>
</trkpt>
<trkpt lat="31.3730900" lon="34.5993300">
<ele>100.820007</ele>
<time>2024-11-26T13:34:02.291Z</time>
</trkpt>
<trkpt lat="31.3729000" lon="34.5992700">
<ele>97.080002</ele>
<time>2024-11-26T13:34:02.291Z</time>
</trkpt>
<trkpt lat="31.3726100" lon="34.5992000">
<ele>94.139999</ele>
<time>2024-11-26T13:34:02.291Z</time>
</trkpt>
<trkpt lat="31.3724200" lon="34.5991100">
<ele>93.769997</ele>
<time>2024-11-26T13:34:02.291Z</time>
</trkpt>
<trkpt lat="31.3720900" lon="34.5991000">
<ele>93.009995</ele>
<time>2024-11-26T13:34:02.291Z</time>
</trkpt>
<trkpt lat="31.3720600" lon="34.5990400">
<ele>92.920006</ele>
<time>2024-11-26T13:34:02.291Z</time>
</trkpt>
<trkpt lat="31.3720600" lon="34.5988000">
<ele>92.779999</ele>
<time>2024-11-26T13:34:02.291Z</time>
</trkpt>
<trkpt lat="31.3720700" lon="34.5984500">
<ele>91.440002</ele>
<time>2024-11-26T13:34:02.291Z</time>
</trkpt>
<trkpt lat="31.3721300" lon="34.5983400">
<ele>90.739998</ele>
<time>2024-11-26T13:34:02.291Z</time>
</trkpt>
<trkpt lat="31.3721700" lon="34.5982000">
<ele>89.459999</ele>
<time>2024-11-26T13:34:02.291Z</time>
</trkpt>
<trkpt lat="31.3721100" lon="34.5979500">
<ele>87.770004</ele>
<time>2024-11-26T13:34:02.291Z</time>
</trkpt>
<trkpt lat="31.3721000" lon="34.5978100">
<ele>87.500000</ele>
<time>2024-11-26T13:34:02.291Z</time>
</trkpt>
<trkpt lat="31.3720700" lon="34.5977800">
<ele>87.549995</ele>
<time>2024-11-26T13:34:02.291Z</time>
</trkpt>
<trkpt lat="31.3718700" lon="34.5976600">
<ele>87.849998</ele>
<time>2024-11-26T13:34:02.291Z</time>
</trkpt>
<trkpt lat="31.3717800" lon="34.5976500">
<ele>87.229996</ele>
<time>2024-11-26T13:34:02.291Z</time>
</trkpt>
<trkpt lat="31.3717400" lon="34.5976400">
<ele>87.019997</ele>
<time>2024-11-26T13:34:02.291Z</time>
</trkpt>
<trkpt lat="31.3716700" lon="34.5976300">
<ele>86.619995</ele>
<time>2024-11-26T13:34:02.291Z</time>
</trkpt>
<trkpt lat="31.3716000" lon="34.5976300">
<ele>86.210007</ele>
<time>2024-11-26T13:34:02.291Z</time>
</trkpt>
<trkpt lat="31.3715300" lon="34.5975500">
<ele>86.250000</ele>
<time>2024-11-26T13:34:02.291Z</time>
</trkpt>
<trkpt lat="31.3715100" lon="34.5975200">
<ele>86.210007</ele>
<time>2024-11-26T13:34:02.291Z</time>
</trkpt>
<trkpt lat="31.3714800" lon="34.5974700">
<ele>86.159996</ele>
<time>2024-11-26T13:34:02.291Z</time>
</trkpt>
<trkpt lat="31.3714600" lon="34.5973700">
<ele>86.580002</ele>
<time>2024-11-26T13:34:02.291Z</time>
</trkpt>
<trkpt lat="31.3714200" lon="34.5970300">
<ele>86.909996</ele>
<time>2024-11-26T13:34:02.291Z</time>
</trkpt>
<trkpt lat="31.3713100" lon="34.5966700">
<ele>87.280006</ele>
<time>2024-11-26T13:34:02.291Z</time>
</trkpt>
<trkpt lat="31.3713700" lon="34.5962200">
<ele>84.930000</ele>
<time>2024-11-26T13:34:02.291Z</time>
</trkpt>
<trkpt lat="31.3713700" lon="34.5959300">
<ele>82.900002</ele>
<time>2024-11-26T13:34:02.291Z</time>
</trkpt>
<trkpt lat="31.3712700" lon="34.5957800">
<ele>83.089996</ele>
<time>2024-11-26T13:34:02.291Z</time>
</trkpt>
<trkpt lat="31.3711800" lon="34.5957200">
<ele>83.849998</ele>
<time>2024-11-26T13:34:02.291Z</time>
</trkpt>
<trkpt lat="31.3710100" lon="34.5955800">
<ele>85.669998</ele>
<time>2024-11-26T13:34:02.291Z</time>
</trkpt>
<trkpt lat="31.3709500" lon="34.5955600">
<ele>86.370003</ele>
<time>2024-11-26T13:34:02.291Z</time>
</trkpt>
<trkpt lat="31.3708200" lon="34.5955400">
<ele>87.740005</ele>
<time>2024-11-26T13:34:02.291Z</time>
</trkpt>
<trkpt lat="31.3703500" lon="34.5955300">
<ele>90.910004</ele>
<time>2024-11-26T13:34:02.291Z</time>
</trkpt>
<trkpt lat="31.3699700" lon="34.5954900">
<ele>89.889999</ele>
<time>2024-11-26T13:34:02.291Z</time>
</trkpt>
<trkpt lat="31.3697200" lon="34.5954300">
<ele>93.580002</ele>
<time>2024-11-26T13:34:02.291Z</time>
</trkpt>
<trkpt lat="31.3695100" lon="34.5952900">
<ele>93.830002</ele>
<time>2024-11-26T13:34:02.291Z</time>
</trkpt>
<trkpt lat="31.3691400" lon="34.5947400">
<ele>95.159996</ele>
<time>2024-11-26T13:34:02.291Z</time>
</trkpt>
<trkpt lat="31.3690400" lon="34.5946600">
<ele>96.989998</ele>
<time>2024-11-26T13:34:02.291Z</time>
</trkpt>
<trkpt lat="31.3688000" lon="34.5944600">
<ele>100.889999</ele>
<time>2024-11-26T13:34:02.291Z</time>
</trkpt>
<trkpt lat="31.3686100" lon="34.5943000">
<ele>97.520004</ele>
<time>2024-11-26T13:34:02.291Z</time>
</trkpt>
<trkpt lat="31.3683300" lon="34.5937700">
<ele>86.279999</ele>
<time>2024-11-26T13:34:02.291Z</time>
</trkpt>
<trkpt lat="31.3683300" lon="34.5934000">
<ele>80.219994</ele>
<time>2024-11-26T13:34:02.291Z</time>
</trkpt>
<trkpt lat="31.3683300" lon="34.5933500">
<ele>79.319992</ele>
<time>2024-11-26T13:34:02.291Z</time>
</trkpt>
<trkpt lat="31.3685700" lon="34.5928400">
<ele>75.889999</ele>
<time>2024-11-26T13:34:02.291Z</time>
</trkpt>
<trkpt lat="31.3686400" lon="34.5926900">
<ele>77.120003</ele>
<time>2024-11-26T13:34:02.291Z</time>
</trkpt>
<trkpt lat="31.3686500" lon="34.5926500">
<ele>77.599998</ele>
<time>2024-11-26T13:34:02.291Z</time>
</trkpt>
<trkpt lat="31.3686500" lon="34.5925300">
<ele>78.829994</ele>
<time>2024-11-26T13:34:02.291Z</time>
</trkpt>
<trkpt lat="31.3686600" lon="34.5924400">
<ele>79.670006</ele>
<time>2024-11-26T13:34:02.291Z</time>
</trkpt>
<trkpt lat="31.3687300" lon="34.5922000">
<ele>80.730003</ele>
<time>2024-11-26T13:34:02.291Z</time>
</trkpt>
<trkpt lat="31.3688200" lon="34.5920400">
<ele>79.409996</ele>
<time>2024-11-26T13:34:02.291Z</time>
</trkpt>
<trkpt lat="31.3688400" lon="34.5920200">
<ele>79.060005</ele>
<time>2024-11-26T13:34:02.291Z</time>
</trkpt>
<trkpt lat="31.3689100" lon="34.5918900">
<ele>78.480003</ele>
<time>2024-11-26T13:34:02.291Z</time>
</trkpt>
<trkpt lat="31.3689100" lon="34.5917700">
<ele>79.380005</ele>
<time>2024-11-26T13:34:02.291Z</time>
</trkpt>
<trkpt lat="31.3689000" lon="34.5916600">
<ele>80.100006</ele>
<time>2024-11-26T13:34:02.291Z</time>
</trkpt>
<trkpt lat="31.3688900" lon="34.5915900">
<ele>80.279999</ele>
<time>2024-11-26T13:34:02.291Z</time>
</trkpt>
<trkpt lat="31.3688000" lon="34.5915600">
<ele>81.810005</ele>
<time>2024-11-26T13:34:02.291Z</time>
</trkpt>
<trkpt lat="31.3686900" lon="34.5915600">
<ele>83.579994</ele>
<time>2024-11-26T13:34:02.291Z</time>
</trkpt>
<trkpt lat="31.3686500" lon="34.5915500">
<ele>84.139999</ele>
<time>2024-11-26T13:34:02.291Z</time>
</trkpt>
<trkpt lat="31.3685700" lon="34.5914600">
<ele>85.059998</ele>
<time>2024-11-26T13:34:02.291Z</time>
</trkpt>
<trkpt lat="31.3683600" lon="34.5913900">
<ele>92.029999</ele>
<time>2024-11-26T13:34:02.291Z</time>
</trkpt>
<trkpt lat="31.3680300" lon="34.5913500">
<ele>94.339996</ele>
<time>2024-11-26T13:34:02.291Z</time>
</trkpt>
<trkpt lat="31.3678700" lon="34.5913200">
<ele>92.750000</ele>
<time>2024-11-26T13:34:02.291Z</time>
</trkpt>
<trkpt lat="31.3677100" lon="34.5912400">
<ele>92.000000</ele>
<time>2024-11-26T13:34:02.291Z</time>
</trkpt>
<trkpt lat="31.3676100" lon="34.5911600">
<ele>92.000000</ele>
<time>2024-11-26T13:34:02.291Z</time>
</trkpt>
<trkpt lat="31.3675000" lon="34.5909200">
<ele>92.689995</ele>
<time>2024-11-26T13:34:02.291Z</time>
</trkpt>
<trkpt lat="31.3674300" lon="34.5907300">
<ele>94.150002</ele>
<time>2024-11-26T13:34:02.291Z</time>
</trkpt>
<trkpt lat="31.3673000" lon="34.5905400">
<ele>95.759995</ele>
<time>2024-11-26T13:34:02.291Z</time>
</trkpt>
<trkpt lat="31.3671500" lon="34.5903300">
<ele>97.709999</ele>
<time>2024-11-26T13:34:02.291Z</time>
</trkpt>
<trkpt lat="31.3670600" lon="34.5902900">
<ele>99.209999</ele>
<time>2024-11-26T13:34:02.291Z</time>
</trkpt>
<trkpt lat="31.3669000" lon="34.5902500">
<ele>100.299995</ele>
<time>2024-11-26T13:34:02.291Z</time>
</trkpt>
<trkpt lat="31.3666200" lon="34.5902100">
<ele>98.029999</ele>
<time>2024-11-26T13:34:02.291Z</time>
</trkpt>
<trkpt lat="31.3665100" lon="34.5902400">
<ele>96.910004</ele>
<time>2024-11-26T13:34:02.291Z</time>
</trkpt>
<trkpt lat="31.3664600" lon="34.5902600">
<ele>96.500000</ele>
<time>2024-11-26T13:34:02.291Z</time>
</trkpt>
<trkpt lat="31.3664400" lon="34.5903700">
<ele>96.790001</ele>
<time>2024-11-26T13:34:02.291Z</time>
</trkpt>
<trkpt lat="31.3664100" lon="34.5908500">
<ele>99.110001</ele>
<time>2024-11-26T13:34:02.291Z</time>
</trkpt>
<trkpt lat="31.3663800" lon="34.5917300">
<ele>95.180008</ele>
<time>2024-11-26T13:34:02.291Z</time>
</trkpt>
<trkpt lat="31.3663600" lon="34.5918000">
<ele>94.339996</ele>
<time>2024-11-26T13:34:02.291Z</time>
</trkpt>
<trkpt lat="31.3663300" lon="34.5919500">
<ele>92.379997</ele>
<time>2024-11-26T13:34:02.291Z</time>
</trkpt>
<trkpt lat="31.3662800" lon="34.5920800">
<ele>91.809998</ele>
<time>2024-11-26T13:34:02.291Z</time>
</trkpt>
<trkpt lat="31.3662300" lon="34.5924600">
<ele>92.489998</ele>
<time>2024-11-26T13:34:02.291Z</time>
</trkpt>
<trkpt lat="31.3660900" lon="34.5926800">
<ele>96.420006</ele>
<time>2024-11-26T13:34:02.291Z</time>
</trkpt>
<trkpt lat="31.3660800" lon="34.5927900">
<ele>97.589996</ele>
<time>2024-11-26T13:34:02.291Z</time>
</trkpt>
<trkpt lat="31.3660800" lon="34.5928800">
<ele>97.050003</ele>
<time>2024-11-26T13:34:02.291Z</time>
</trkpt>
<trkpt lat="31.3661300" lon="34.5929700">
<ele>96.229996</ele>
<time>2024-11-26T13:34:02.291Z</time>
</trkpt>
<trkpt lat="31.3661500" lon="34.5930900">
<ele>94.570007</ele>
<time>2024-11-26T13:34:02.291Z</time>
</trkpt>
<trkpt lat="31.3661500" lon="34.5932300">
<ele>92.199997</ele>
<time>2024-11-26T13:34:02.291Z</time>
</trkpt>
<trkpt lat="31.3661300" lon="34.5936700">
<ele>89.509995</ele>
<time>2024-11-26T13:34:02.291Z</time>
</trkpt>
<trkpt lat="31.3661200" lon="34.5938600">
<ele>91.649994</ele>
<time>2024-11-26T13:34:02.291Z</time>
</trkpt>
<trkpt lat="31.3660600" lon="34.5938900">
<ele>92.190002</ele>
<time>2024-11-26T13:34:02.291Z</time>
</trkpt>
<trkpt lat="31.3659600" lon="34.5938900">
<ele>92.549995</ele>
<time>2024-11-26T13:34:02.291Z</time>
</trkpt>
<trkpt lat="31.3657500" lon="34.5938600">
<ele>96.829994</ele>
<time>2024-11-26T13:34:02.291Z</time>
</trkpt>
<trkpt lat="31.3655600" lon="34.5936200">
<ele>102.960007</ele>
<time>2024-11-26T13:34:02.291Z</time>
</trkpt>
<trkpt lat="31.3655000" lon="34.5936000">
<ele>103.290001</ele>
<time>2024-11-26T13:34:02.291Z</time>
</trkpt>
<trkpt lat="31.3654500" lon="34.5936100">
<ele>103.750000</ele>
<time>2024-11-26T13:34:02.291Z</time>
</trkpt>
<trkpt lat="31.3654100" lon="34.5936000">
<ele>103.949997</ele>
<time>2024-11-26T13:34:02.291Z</time>
</trkpt>
<trkpt lat="31.3653400" lon="34.5935700">
<ele>104.220001</ele>
<time>2024-11-26T13:34:02.291Z</time>
</trkpt>
<trkpt lat="31.3651500" lon="34.5933600">
<ele>101.859993</ele>
<time>2024-11-26T13:34:02.291Z</time>
</trkpt>
<trkpt lat="31.3650000" lon="34.5932100">
<ele>98.669998</ele>
<time>2024-11-26T13:34:02.291Z</time>
</trkpt>
<trkpt lat="31.3649200" lon="34.5931700">
<ele>97.830002</ele>
<time>2024-11-26T13:34:02.291Z</time>
</trkpt>
<trkpt lat="31.3648900" lon="34.5932100">
<ele>98.049995</ele>
<time>2024-11-26T13:34:02.291Z</time>
</trkpt>
<trkpt lat="31.3649000" lon="34.5933100">
<ele>99.059998</ele>
<time>2024-11-26T13:34:02.291Z</time>
</trkpt>
<trkpt lat="31.3648800" lon="34.5934300">
<ele>99.729996</ele>
<time>2024-11-26T13:34:02.291Z</time>
</trkpt>
<trkpt lat="31.3648000" lon="34.5935100">
<ele>99.089996</ele>
<time>2024-11-26T13:34:02.291Z</time>
</trkpt>
<trkpt lat="31.3645500" lon="34.5935400">
<ele>93.339996</ele>
<time>2024-11-26T13:34:02.291Z</time>
</trkpt>
<trkpt lat="31.3644200" lon="34.5935400">
<ele>89.760002</ele>
<time>2024-11-26T13:34:02.291Z</time>
</trkpt>
<trkpt lat="31.3644100" lon="34.5936400">
<ele>90.450005</ele>
<time>2024-11-26T13:34:02.291Z</time>
</trkpt>
<trkpt lat="31.3644600" lon="34.5938700">
<ele>94.859993</ele>
<time>2024-11-26T13:34:02.291Z</time>
</trkpt>
<trkpt lat="31.3645800" lon="34.5939600">
<ele>95.090004</ele>
<time>2024-11-26T13:34:02.291Z</time>
</trkpt>
<trkpt lat="31.3647500" lon="34.5940500">
<ele>94.280006</ele>
<time>2024-11-26T13:34:02.291Z</time>
</trkpt>
<trkpt lat="31.3648100" lon="34.5941300">
<ele>93.060005</ele>
<time>2024-11-26T13:34:02.291Z</time>
</trkpt>
<trkpt lat="31.3648200" lon="34.5942700">
<ele>91.610001</ele>
<time>2024-11-26T13:34:02.291Z</time>
</trkpt>
<trkpt lat="31.3648200" lon="34.5944400">
<ele>90.379997</ele>
<time>2024-11-26T13:34:02.291Z</time>
</trkpt>
<trkpt lat="31.3648700" lon="34.5948300">
<ele>92.190002</ele>
<time>2024-11-26T13:34:02.291Z</time>
</trkpt>
<trkpt lat="31.3649300" lon="34.5949600">
<ele>93.990005</ele>
<time>2024-11-26T13:34:02.291Z</time>
</trkpt>
<trkpt lat="31.3650300" lon="34.5950700">
<ele>94.680000</ele>
<time>2024-11-26T13:34:02.291Z</time>
</trkpt>
<trkpt lat="31.3651100" lon="34.5951000">
<ele>94.160004</ele>
<time>2024-11-26T13:34:02.291Z</time>
</trkpt>
<trkpt lat="31.3651200" lon="34.5952200">
<ele>95.580002</ele>
<time>2024-11-26T13:34:02.291Z</time>
</trkpt>
<trkpt lat="31.3651200" lon="34.5953300">
<ele>96.400002</ele>
<time>2024-11-26T13:34:02.291Z</time>
</trkpt>
<trkpt lat="31.3651100" lon="34.5954100">
<ele>96.479996</ele>
<time>2024-11-26T13:34:02.291Z</time>
</trkpt>
<trkpt lat="31.3651100" lon="34.5955000">
<ele>96.669998</ele>
<time>2024-11-26T13:34:02.291Z</time>
</trkpt>
<trkpt lat="31.3651200" lon="34.5956100">
<ele>96.689995</ele>
<time>2024-11-26T13:34:02.291Z</time>
</trkpt>
<trkpt lat="31.3651100" lon="34.5957700">
<ele>96.180000</ele>
<time>2024-11-26T13:34:02.291Z</time>
</trkpt>
<trkpt lat="31.3651100" lon="34.5958800">
<ele>95.970001</ele>
<time>2024-11-26T13:34:02.291Z</time>
</trkpt>
<trkpt lat="31.3651200" lon="34.5959700">
<ele>95.849998</ele>
<time>2024-11-26T13:34:02.291Z</time>
</trkpt>
<trkpt lat="31.3650600" lon="34.5961000">
<ele>96.339996</ele>
<time>2024-11-26T13:34:02.291Z</time>
</trkpt>
<trkpt lat="31.3648900" lon="34.5963100">
<ele>93.179993</ele>
<time>2024-11-26T13:34:02.291Z</time>
</trkpt>
<trkpt lat="31.3648800" lon="34.5966000">
<ele>91.029999</ele>
<time>2024-11-26T13:34:02.291Z</time>
</trkpt>
<trkpt lat="31.3648300" lon="34.5968000">
<ele>88.330002</ele>
<time>2024-11-26T13:34:02.291Z</time>
</trkpt>
<trkpt lat="31.3646100" lon="34.5967600">
<ele>86.540001</ele>
<time>2024-11-26T13:34:02.291Z</time>
</trkpt>
<trkpt lat="31.3642000" lon="34.5966400">
<ele>87.799995</ele>
<time>2024-11-26T13:34:02.291Z</time>
</trkpt>
<trkpt lat="31.3641000" lon="34.5966800">
<ele>89.270004</ele>
<time>2024-11-26T13:34:02.291Z</time>
</trkpt>
<trkpt lat="31.3640700" lon="34.5967000">
<ele>90.150002</ele>
<time>2024-11-26T13:34:02.291Z</time>
</trkpt>
<trkpt lat="31.3640900" lon="34.5968500">
<ele>93.360001</ele>
<time>2024-11-26T13:34:02.291Z</time>
</trkpt>
<trkpt lat="31.3641300" lon="34.5970100">
<ele>95.940002</ele>
<time>2024-11-26T13:34:02.291Z</time>
</trkpt>
<trkpt lat="31.3641000" lon="34.5972100">
<ele>98.120003</ele>
<time>2024-11-26T13:34:02.291Z</time>
</trkpt>
<trkpt lat="31.3638500" lon="34.5972600">
<ele>97.559998</ele>
<time>2024-11-26T13:34:02.291Z</time>
</trkpt>
<trkpt lat="31.3635500" lon="34.5971300">
<ele>93.639999</ele>
<time>2024-11-26T13:34:02.291Z</time>
</trkpt>
<trkpt lat="31.3631100" lon="34.5970600">
<ele>92.849998</ele>
<time>2024-11-26T13:34:02.291Z</time>
</trkpt>
<trkpt lat="31.3630000" lon="34.5968500">
<ele>90.599998</ele>
<time>2024-11-26T13:34:02.291Z</time>
</trkpt>
<trkpt lat="31.3629900" lon="34.5966400">
<ele>91.129997</ele>
<time>2024-11-26T13:34:02.291Z</time>
</trkpt>
<trkpt lat="31.3629500" lon="34.5965800">
<ele>91.659996</ele>
<time>2024-11-26T13:34:02.291Z</time>
</trkpt>
<trkpt lat="31.3628900" lon="34.5964400">
<ele>92.010002</ele>
<time>2024-11-26T13:34:02.291Z</time>
</trkpt>
<trkpt lat="31.3627700" lon="34.5962300">
<ele>86.220001</ele>
<time>2024-11-26T13:34:02.291Z</time>
</trkpt>
<trkpt lat="31.3625600" lon="34.5960700">
<ele>85.989998</ele>
<time>2024-11-26T13:34:02.291Z</time>
</trkpt>
<trkpt lat="31.3624700" lon="34.5959200">
<ele>85.500000</ele>
<time>2024-11-26T13:34:02.291Z</time>
</trkpt>
<trkpt lat="31.3624700" lon="34.5958000">
<ele>84.169998</ele>
<time>2024-11-26T13:34:02.291Z</time>
</trkpt>
<trkpt lat="31.3625700" lon="34.5956100">
<ele>82.189995</ele>
<time>2024-11-26T13:34:02.291Z</time>
</trkpt>
<trkpt lat="31.3626300" lon="34.5954500">
<ele>82.760002</ele>
<time>2024-11-26T13:34:02.291Z</time>
</trkpt>
<trkpt lat="31.3626500" lon="34.5954200">
<ele>82.979996</ele>
<time>2024-11-26T13:34:02.291Z</time>
</trkpt>
<trkpt lat="31.3627600" lon="34.5951800">
<ele>84.349998</ele>
<time>2024-11-26T13:34:02.291Z</time>
</trkpt>
<trkpt lat="31.3627700" lon="34.5950100">
<ele>84.959999</ele>
<time>2024-11-26T13:34:02.291Z</time>
</trkpt>
<trkpt lat="31.3629100" lon="34.5947600">
<ele>82.769997</ele>
<time>2024-11-26T13:34:02.291Z</time>
</trkpt>
<trkpt lat="31.3629900" lon="34.5947500">
<ele>81.879997</ele>
<time>2024-11-26T13:34:02.291Z</time>
</trkpt>
<trkpt lat="31.3631600" lon="34.5947400">
<ele>81.599998</ele>
<time>2024-11-26T13:34:02.291Z</time>
</trkpt>
<trkpt lat="31.3632400" lon="34.5947200">
<ele>81.650002</ele>
<time>2024-11-26T13:34:02.291Z</time>
</trkpt>
<trkpt lat="31.3633000" lon="34.5944600">
<ele>78.669998</ele>
<time>2024-11-26T13:34:02.291Z</time>
</trkpt>
<trkpt lat="31.3633500" lon="34.5940700">
<ele>79.260002</ele>
<time>2024-11-26T13:34:02.291Z</time>
</trkpt>
<trkpt lat="31.3633600" lon="34.5939400">
<ele>80.479996</ele>
<time>2024-11-26T13:34:02.291Z</time>
</trkpt>
<trkpt lat="31.3636600" lon="34.5937900">
<ele>81.279999</ele>
<time>2024-11-26T13:34:02.291Z</time>
</trkpt>
<trkpt lat="31.3640000" lon="34.5933000">
<ele>78.900002</ele>
<time>2024-11-26T13:34:02.291Z</time>
</trkpt>
<trkpt lat="31.3640100" lon="34.5931500">
<ele>79.330002</ele>
<time>2024-11-26T13:34:02.291Z</time>
</trkpt>
<trkpt lat="31.3640100" lon="34.5931100">
<ele>79.430000</ele>
<time>2024-11-26T13:34:02.291Z</time>
</trkpt>
<trkpt lat="31.3639800" lon="34.5930900">
<ele>79.550003</ele>
<time>2024-11-26T13:34:02.291Z</time>
</trkpt>
<trkpt lat="31.3638400" lon="34.5931300">
<ele>80.700005</ele>
<time>2024-11-26T13:34:02.291Z</time>
</trkpt>
<trkpt lat="31.3637700" lon="34.5931400">
<ele>82.390007</ele>
<time>2024-11-26T13:34:02.291Z</time>
</trkpt>
<trkpt lat="31.3637100" lon="34.5930800">
<ele>84.329994</ele>
<time>2024-11-26T13:34:02.291Z</time>
</trkpt>
<trkpt lat="31.3637100" lon="34.5929900">
<ele>84.909996</ele>
<time>2024-11-26T13:34:02.291Z</time>
</trkpt>
<trkpt lat="31.3637200" lon="34.5928600">
<ele>85.510002</ele>
<time>2024-11-26T13:34:02.291Z</time>
</trkpt>
<trkpt lat="31.3637200" lon="34.5927900">
<ele>85.959999</ele>
<time>2024-11-26T13:34:02.291Z</time>
</trkpt>
<trkpt lat="31.3637300" lon="34.5924300">
<ele>88.680000</ele>
<time>2024-11-26T13:34:02.291Z</time>
</trkpt>
<trkpt lat="31.3639400" lon="34.5922300">
<ele>86.329994</ele>
<time>2024-11-26T13:34:02.291Z</time>
</trkpt>
<trkpt lat="31.3640100" lon="34.5921900">
<ele>84.180000</ele>
<time>2024-11-26T13:34:02.291Z</time>
</trkpt>
<trkpt lat="31.3640700" lon="34.5920400">
<ele>82.990005</ele>
<time>2024-11-26T13:34:02.291Z</time>
</trkpt>
<trkpt lat="31.3640800" lon="34.5918200">
<ele>83.209999</ele>
<time>2024-11-26T13:34:02.291Z</time>
</trkpt>
<trkpt lat="31.3641100" lon="34.5916000">
<ele>82.959999</ele>
<time>2024-11-26T13:34:02.291Z</time>
</trkpt>
<trkpt lat="31.3643100" lon="34.5916000">
<ele>80.440002</ele>
<time>2024-11-26T13:34:02.291Z</time>
</trkpt>
<trkpt lat="31.3644200" lon="34.5914400">
<ele>78.590004</ele>
<time>2024-11-26T13:34:02.291Z</time>
</trkpt>
<trkpt lat="31.3645700" lon="34.5914600">
<ele>80.420006</ele>
<time>2024-11-26T13:34:02.291Z</time>
</trkpt>
<trkpt lat="31.3646100" lon="34.5914200">
<ele>80.369995</ele>
<time>2024-11-26T13:34:02.291Z</time>
</trkpt>
<trkpt lat="31.3646300" lon="34.5913600">
<ele>79.970001</ele>
<time>2024-11-26T13:34:02.291Z</time>
</trkpt>
<trkpt lat="31.3646900" lon="34.5909800">
<ele>79.989998</ele>
<time>2024-11-26T13:34:02.291Z</time>
</trkpt>
<trkpt lat="31.3647100" lon="34.5906100">
<ele>81.650002</ele>
<time>2024-11-26T13:34:02.291Z</time>
</trkpt>
<trkpt lat="31.3647200" lon="34.5904900">
<ele>82.010002</ele>
<time>2024-11-26T13:34:02.291Z</time>
</trkpt>
<trkpt lat="31.3647800" lon="34.5904800">
<ele>82.059998</ele>
<time>2024-11-26T13:34:02.291Z</time>
</trkpt>
<trkpt lat="31.3650700" lon="34.5900100">
<ele>83.579994</ele>
<time>2024-11-26T13:34:02.291Z</time>
</trkpt>
<trkpt lat="31.3651400" lon="34.5897400">
<ele>83.150002</ele>
<time>2024-11-26T13:34:02.291Z</time>
</trkpt>
<trkpt lat="31.3651600" lon="34.5895600">
<ele>81.860001</ele>
<time>2024-11-26T13:34:02.291Z</time>
</trkpt>
<trkpt lat="31.3651500" lon="34.5895000">
<ele>81.139999</ele>
<time>2024-11-26T13:34:02.291Z</time>
</trkpt>
<trkpt lat="31.3651600" lon="34.5892500">
<ele>78.820000</ele>
<time>2024-11-26T13:34:02.291Z</time>
</trkpt>
<trkpt lat="31.3651400" lon="34.5890100">
<ele>78.280006</ele>
<time>2024-11-26T13:34:02.291Z</time>
</trkpt>
<trkpt lat="31.3647700" lon="34.5889700">
<ele>86.040001</ele>
<time>2024-11-26T13:34:02.291Z</time>
</trkpt>
<trkpt lat="31.3646600" lon="34.5889400">
<ele>87.770004</ele>
<time>2024-11-26T13:34:02.291Z</time>
</trkpt>
<trkpt lat="31.3645300" lon="34.5885600">
<ele>90.200005</ele>
<time>2024-11-26T13:34:02.291Z</time>
</trkpt>
<trkpt lat="31.3645900" lon="34.5885000">
<ele>90.170006</ele>
<time>2024-11-26T13:34:02.291Z</time>
</trkpt>
<trkpt lat="31.3647000" lon="34.5885500">
<ele>89.829994</ele>
<time>2024-11-26T13:34:02.291Z</time>
</trkpt>
<trkpt lat="31.3649400" lon="34.5886100">
<ele>85.300003</ele>
<time>2024-11-26T13:34:02.291Z</time>
</trkpt>
<trkpt lat="31.3650200" lon="34.5883100">
<ele>86.459999</ele>
<time>2024-11-26T13:34:02.291Z</time>
</trkpt>
<trkpt lat="31.3651000" lon="34.5879300">
<ele>89.110001</ele>
<time>2024-11-26T13:34:02.291Z</time>
</trkpt>
<trkpt lat="31.3651600" lon="34.5877400">
<ele>88.449997</ele>
<time>2024-11-26T13:34:02.291Z</time>
</trkpt>
<trkpt lat="31.3651400" lon="34.5876200">
<ele>86.159996</ele>
<time>2024-11-26T13:34:02.291Z</time>
</trkpt>
<trkpt lat="31.3650700" lon="34.5874700">
<ele>83.729996</ele>
<time>2024-11-26T13:34:02.291Z</time>
</trkpt>
<trkpt lat="31.3649200" lon="34.5868900">
<ele>80.290001</ele>
<time>2024-11-26T13:34:02.291Z</time>
</trkpt>
<trkpt lat="31.3649000" lon="34.5868300">
<ele>79.849998</ele>
<time>2024-11-26T13:34:02.291Z</time>
</trkpt>
<trkpt lat="31.3648700" lon="34.5863800">
<ele>77.949997</ele>
<time>2024-11-26T13:34:02.291Z</time>
</trkpt>
<trkpt lat="31.3648600" lon="34.5861000">
<ele>78.459999</ele>
<time>2024-11-26T13:34:02.291Z</time>
</trkpt>
<trkpt lat="31.3648700" lon="34.5858500">
<ele>77.589996</ele>
<time>2024-11-26T13:34:02.291Z</time>
</trkpt>
<trkpt lat="31.3648500" lon="34.5857600">
<ele>77.580002</ele>
<time>2024-11-26T13:34:02.291Z</time>
</trkpt>
<trkpt lat="31.3647600" lon="34.5856800">
<ele>77.209999</ele>
<time>2024-11-26T13:34:02.291Z</time>
</trkpt>
<trkpt lat="31.3643500" lon="34.5853800">
<ele>89.219994</ele>
<time>2024-11-26T13:34:02.291Z</time>
</trkpt>
<trkpt lat="31.3641700" lon="34.5851300">
<ele>93.799995</ele>
<time>2024-11-26T13:34:02.291Z</time>
</trkpt>
<trkpt lat="31.3639500" lon="34.5850800">
<ele>93.380005</ele>
<time>2024-11-26T13:34:02.291Z</time>
</trkpt>
<trkpt lat="31.3639100" lon="34.5849000">
<ele>89.889999</ele>
<time>2024-11-26T13:34:02.291Z</time>
</trkpt>
<trkpt lat="31.3639300" lon="34.5847000">
<ele>86.070000</ele>
<time>2024-11-26T13:34:02.291Z</time>
</trkpt>
<trkpt lat="31.3638900" lon="34.5846500">
<ele>85.229996</ele>
<time>2024-11-26T13:34:02.291Z</time>
</trkpt>
<trkpt lat="31.3637700" lon="34.5845300">
<ele>83.199997</ele>
<time>2024-11-26T13:34:02.291Z</time>
</trkpt>
<trkpt lat="31.3637700" lon="34.5844500">
<ele>82.209999</ele>
<time>2024-11-26T13:34:02.291Z</time>
</trkpt>
<trkpt lat="31.3638000" lon="34.5842900">
<ele>80.160004</ele>
<time>2024-11-26T13:34:02.291Z</time>
</trkpt>
<trkpt lat="31.3638100" lon="34.5842500">
<ele>79.739998</ele>
<time>2024-11-26T13:34:02.291Z</time>
</trkpt>
<trkpt lat="31.3638800" lon="34.5841900">
<ele>80.100006</ele>
<time>2024-11-26T13:34:02.291Z</time>
</trkpt>
<trkpt lat="31.3639000" lon="34.5841100">
<ele>78.979996</ele>
<time>2024-11-26T13:34:02.291Z</time>
</trkpt>
<trkpt lat="31.3639500" lon="34.5840500">
<ele>77.900002</ele>
<time>2024-11-26T13:34:02.291Z</time>
</trkpt>
<trkpt lat="31.3640300" lon="34.5840300">
<ele>77.540001</ele>
<time>2024-11-26T13:34:02.291Z</time>
</trkpt>
<trkpt lat="31.3641200" lon="34.5840100">
<ele>77.180000</ele>
<time>2024-11-26T13:34:02.291Z</time>
</trkpt>
<trkpt lat="31.3641700" lon="34.5841100">
<ele>78.979996</ele>
<time>2024-11-26T13:34:02.291Z</time>
</trkpt>
<trkpt lat="31.3642400" lon="34.5841300">
<ele>79.309998</ele>
<time>2024-11-26T13:34:02.291Z</time>
</trkpt>
<trkpt lat="31.3645200" lon="34.5840000">
<ele>76.559998</ele>
<time>2024-11-26T13:34:02.291Z</time>
</trkpt>
<trkpt lat="31.3644600" lon="34.5838500">
<ele>74.590004</ele>
<time>2024-11-26T13:34:02.291Z</time>
</trkpt>
<trkpt lat="31.3644700" lon="34.5837800">
<ele>75.549995</ele>
<time>2024-11-26T13:34:02.291Z</time>
</trkpt>
<trkpt lat="31.3644800" lon="34.5837500">
<ele>75.940002</ele>
<time>2024-11-26T13:34:02.291Z</time>
</trkpt>
<trkpt lat="31.3645000" lon="34.5836400">
<ele>77.250000</ele>
<time>2024-11-26T13:34:02.291Z</time>
</trkpt>
<trkpt lat="31.3645800" lon="34.5835600">
<ele>77.029999</ele>
<time>2024-11-26T13:34:02.291Z</time>
</trkpt>
<trkpt lat="31.3646100" lon="34.5833600">
<ele>76.630005</ele>
<time>2024-11-26T13:34:02.291Z</time>
</trkpt>
<trkpt lat="31.3646400" lon="34.5833300">
<ele>76.209999</ele>
<time>2024-11-26T13:34:02.291Z</time>
</trkpt>
<trkpt lat="31.3647000" lon="34.5833200">
<ele>75.489998</ele>
<time>2024-11-26T13:34:02.291Z</time>
</trkpt>
<trkpt lat="31.3649300" lon="34.5833900">
<ele>71.629997</ele>
<time>2024-11-26T13:34:02.291Z</time>
</trkpt>
<trkpt lat="31.3650300" lon="34.5833900">
<ele>70.620003</ele>
<time>2024-11-26T13:34:02.291Z</time>
</trkpt>
<trkpt lat="31.3654400" lon="34.5837600">
<ele>75.440002</ele>
<time>2024-11-26T13:34:02.291Z</time>
</trkpt>
<trkpt lat="31.3654300" lon="34.5839300">
<ele>73.110001</ele>
<time>2024-11-26T13:34:02.291Z</time>
</trkpt>
<trkpt lat="31.3654300" lon="34.5839800">
<ele>72.900002</ele>
<time>2024-11-26T13:34:02.291Z</time>
</trkpt>
<trkpt lat="31.3654600" lon="34.5840700">
<ele>72.879997</ele>
<time>2024-11-26T13:34:02.291Z</time>
</trkpt>
<trkpt lat="31.3656300" lon="34.5841700">
<ele>75.159996</ele>
<time>2024-11-26T13:34:02.291Z</time>
</trkpt>
<trkpt lat="31.3657200" lon="34.5843400">
<ele>77.879997</ele>
<time>2024-11-26T13:34:02.291Z</time>
</trkpt>
<trkpt lat="31.3658800" lon="34.5843500">
<ele>80.450005</ele>
<time>2024-11-26T13:34:02.291Z</time>
</trkpt>
<trkpt lat="31.3663900" lon="34.5843200">
<ele>80.650002</ele>
<time>2024-11-26T13:34:02.291Z</time>
</trkpt>
<trkpt lat="31.3664200" lon="34.5843600">
<ele>81.050003</ele>
<time>2024-11-26T13:34:02.291Z</time>
</trkpt>
<trkpt lat="31.3664300" lon="34.5846600">
<ele>81.570000</ele>
<time>2024-11-26T13:34:02.291Z</time>
</trkpt>
<trkpt lat="31.3663200" lon="34.5847500">
<ele>80.829994</ele>
<time>2024-11-26T13:34:02.291Z</time>
</trkpt>
<trkpt lat="31.3663100" lon="34.5849200">
<ele>81.230003</ele>
<time>2024-11-26T13:34:02.291Z</time>
</trkpt>
<trkpt lat="31.3662800" lon="34.5849700">
<ele>81.149994</ele>
<time>2024-11-26T13:34:02.291Z</time>
</trkpt>
<trkpt lat="31.3662600" lon="34.5851700">
<ele>80.829994</ele>
<time>2024-11-26T13:34:02.291Z</time>
</trkpt>
<trkpt lat="31.3661300" lon="34.5855600">
<ele>79.080002</ele>
<time>2024-11-26T13:34:02.291Z</time>
</trkpt>
<trkpt lat="31.3661200" lon="34.5857800">
<ele>79.810005</ele>
<time>2024-11-26T13:34:02.291Z</time>
</trkpt>
<trkpt lat="31.3662200" lon="34.5859500">
<ele>79.230003</ele>
<time>2024-11-26T13:34:02.291Z</time>
</trkpt>
<trkpt lat="31.3661800" lon="34.5861400">
<ele>77.669998</ele>
<time>2024-11-26T13:34:02.291Z</time>
</trkpt>
<trkpt lat="31.3661900" lon="34.5864200">
<ele>77.220001</ele>
<time>2024-11-26T13:34:02.291Z</time>
</trkpt>
<trkpt lat="31.3662800" lon="34.5866600">
<ele>78.809998</ele>
<time>2024-11-26T13:34:02.291Z</time>
</trkpt>
<trkpt lat="31.3666300" lon="34.5869000">
<ele>84.419998</ele>
<time>2024-11-26T13:34:02.291Z</time>
</trkpt>
<trkpt lat="31.3666400" lon="34.5874500">
<ele>84.169998</ele>
<time>2024-11-26T13:34:02.291Z</time>
</trkpt>
<trkpt lat="31.3666600" lon="34.5876200">
<ele>81.759995</ele>
<time>2024-11-26T13:34:02.291Z</time>
</trkpt>
<trkpt lat="31.3666800" lon="34.5877700">
<ele>79.230003</ele>
<time>2024-11-26T13:34:02.291Z</time>
</trkpt>
<trkpt lat="31.3667200" lon="34.5878600">
<ele>78.849998</ele>
<time>2024-11-26T13:34:02.291Z</time>
</trkpt>
<trkpt lat="31.3668500" lon="34.5878500">
<ele>79.970001</ele>
<time>2024-11-26T13:34:02.291Z</time>
</trkpt>
<trkpt lat="31.3669100" lon="34.5878500">
<ele>80.459999</ele>
<time>2024-11-26T13:34:02.291Z</time>
</trkpt>
<trkpt lat="31.3671800" lon="34.5878600">
<ele>82.400002</ele>
<time>2024-11-26T13:34:02.291Z</time>
</trkpt>
<trkpt lat="31.3672500" lon="34.5876400">
<ele>82.359993</ele>
<time>2024-11-26T13:34:02.291Z</time>
</trkpt>
<trkpt lat="31.3673000" lon="34.5874200">
<ele>80.839996</ele>
<time>2024-11-26T13:34:02.291Z</time>
</trkpt>
<trkpt lat="31.3673900" lon="34.5873000">
<ele>80.279999</ele>
<time>2024-11-26T13:34:02.291Z</time>
</trkpt>
<trkpt lat="31.3676800" lon="34.5872000">
<ele>79.660004</ele>
<time>2024-11-26T13:34:02.291Z</time>
</trkpt>
<trkpt lat="31.3679100" lon="34.5871900">
<ele>81.149994</ele>
<time>2024-11-26T13:34:02.291Z</time>
</trkpt>
<trkpt lat="31.3684700" lon="34.5872600">
<ele>86.970001</ele>
<time>2024-11-26T13:34:02.291Z</time>
</trkpt>
<trkpt lat="31.3687200" lon="34.5871900">
<ele>87.930000</ele>
<time>2024-11-26T13:34:02.291Z</time>
</trkpt>
<trkpt lat="31.3691400" lon="34.5872400">
<ele>92.000000</ele>
<time>2024-11-26T13:34:02.291Z</time>
</trkpt>
<trkpt lat="31.3696900" lon="34.5879900">
<ele>92.879997</ele>
<time>2024-11-26T13:34:02.291Z</time>
</trkpt>
<trkpt lat="31.3701700" lon="34.5891600">
<ele>80.629997</ele>
<time>2024-11-26T13:34:02.291Z</time>
</trkpt>
<trkpt lat="31.3701800" lon="34.5893800">
<ele>82.180000</ele>
<time>2024-11-26T13:34:02.291Z</time>
</trkpt>
<trkpt lat="31.3703100" lon="34.5899400">
<ele>85.669998</ele>
<time>2024-11-26T13:34:02.291Z</time>
</trkpt>
<trkpt lat="31.3705300" lon="34.5900900">
<ele>87.320000</ele>
<time>2024-11-26T13:34:02.291Z</time>
</trkpt>
<trkpt lat="31.3708400" lon="34.5900100">
<ele>87.949997</ele>
<time>2024-11-26T13:34:02.291Z</time>
</trkpt>
<trkpt lat="31.3709000" lon="34.5901200">
<ele>87.519997</ele>
<time>2024-11-26T13:34:02.291Z</time>
</trkpt>
<trkpt lat="31.3708900" lon="34.5902800">
<ele>87.570007</ele>
<time>2024-11-26T13:34:02.291Z</time>
</trkpt>
<trkpt lat="31.3709100" lon="34.5903600">
<ele>86.670006</ele>
<time>2024-11-26T13:34:02.291Z</time>
</trkpt>
<trkpt lat="31.3710800" lon="34.5905600">
<ele>86.640007</ele>
<time>2024-11-26T13:34:02.291Z</time>
</trkpt>
<trkpt lat="31.3711000" lon="34.5905900">
<ele>86.640007</ele>
<time>2024-11-26T13:34:02.291Z</time>
</trkpt>
<trkpt lat="31.3711300" lon="34.5909100">
<ele>86.019997</ele>
<time>2024-11-26T13:34:02.291Z</time>
</trkpt>
<trkpt lat="31.3711700" lon="34.5912300">
<ele>89.150002</ele>
<time>2024-11-26T13:34:02.291Z</time>
</trkpt>
<trkpt lat="31.3711500" lon="34.5914100">
<ele>88.609993</ele>
<time>2024-11-26T13:34:02.291Z</time>
</trkpt>
<trkpt lat="31.3711700" lon="34.5915300">
<ele>87.750000</ele>
<time>2024-11-26T13:34:02.291Z</time>
</trkpt>
<trkpt lat="31.3710700" lon="34.5916500">
<ele>85.470001</ele>
<time>2024-11-26T13:34:02.291Z</time>
</trkpt>
<trkpt lat="31.3708800" lon="34.5916600">
<ele>86.720001</ele>
<time>2024-11-26T13:34:02.291Z</time>
</trkpt>
<trkpt lat="31.3707300" lon="34.5916200">
<ele>86.650002</ele>
<time>2024-11-26T13:34:02.291Z</time>
</trkpt>
<trkpt lat="31.3705900" lon="34.5915200">
<ele>86.769997</ele>
<time>2024-11-26T13:34:02.291Z</time>
</trkpt>
<trkpt lat="31.3702400" lon="34.5914200">
<ele>83.920006</ele>
<time>2024-11-26T13:34:02.291Z</time>
</trkpt>
<trkpt lat="31.3701200" lon="34.5914400">
<ele>81.279999</ele>
<time>2024-11-26T13:34:02.291Z</time>
</trkpt>
<trkpt lat="31.3701200" lon="34.5916500">
<ele>82.349998</ele>
<time>2024-11-26T13:34:02.291Z</time>
</trkpt>
<trkpt lat="31.3701900" lon="34.5918300">
<ele>84.629997</ele>
<time>2024-11-26T13:34:02.291Z</time>
</trkpt>
<trkpt lat="31.3702000" lon="34.5919500">
<ele>86.080002</ele>
<time>2024-11-26T13:34:02.291Z</time>
</trkpt>
<trkpt lat="31.3701900" lon="34.5920200">
<ele>87.089996</ele>
<time>2024-11-26T13:34:02.291Z</time>
</trkpt>
<trkpt lat="31.3701400" lon="34.5920800">
<ele>87.949997</ele>
<time>2024-11-26T13:34:02.291Z</time>
</trkpt>
<trkpt lat="31.3701300" lon="34.5921800">
<ele>89.390007</ele>
<time>2024-11-26T13:34:02.291Z</time>
</trkpt>
<trkpt lat="31.3701700" lon="34.5925700">
<ele>90.320000</ele>
<time>2024-11-26T13:34:02.291Z</time>
</trkpt>
<trkpt lat="31.3701500" lon="34.5927700">
<ele>91.139999</ele>
<time>2024-11-26T13:34:02.291Z</time>
</trkpt>
<trkpt lat="31.3702200" lon="34.5929500">
<ele>92.059998</ele>
<time>2024-11-26T13:34:02.291Z</time>
</trkpt>
<trkpt lat="31.3702400" lon="34.5931400">
<ele>92.080002</ele>
<time>2024-11-26T13:34:02.291Z</time>
</trkpt>
<trkpt lat="31.3702900" lon="34.5932100">
<ele>91.840004</ele>
<time>2024-11-26T13:34:02.291Z</time>
</trkpt>
<trkpt lat="31.3705300" lon="34.5933100">
<ele>87.689995</ele>
<time>2024-11-26T13:34:02.291Z</time>
</trkpt>
<trkpt lat="31.3706300" lon="34.5935000">
<ele>85.169998</ele>
<time>2024-11-26T13:34:02.291Z</time>
</trkpt>
<trkpt lat="31.3707200" lon="34.5935800">
<ele>83.220001</ele>
<time>2024-11-26T13:34:02.291Z</time>
</trkpt>
<trkpt lat="31.3713200" lon="34.5941000">
<ele>77.480003</ele>
<time>2024-11-26T13:34:02.291Z</time>
</trkpt>
<trkpt lat="31.3715500" lon="34.5948400">
<ele>87.549995</ele>
<time>2024-11-26T13:34:02.291Z</time>
</trkpt>
<trkpt lat="31.3716300" lon="34.5951800">
<ele>86.779999</ele>
<time>2024-11-26T13:34:02.291Z</time>
</trkpt>
<trkpt lat="31.3717200" lon="34.5952800">
<ele>85.399994</ele>
<time>2024-11-26T13:34:02.291Z</time>
</trkpt>
<trkpt lat="31.3720100" lon="34.5955800">
<ele>84.309998</ele>
<time>2024-11-26T13:34:02.291Z</time>
</trkpt>
<trkpt lat="31.3721100" lon="34.5957900">
<ele>88.970001</ele>
<time>2024-11-26T13:34:02.291Z</time>
</trkpt>
<trkpt lat="31.3722300" lon="34.5960800">
<ele>88.909996</ele>
<time>2024-11-26T13:34:02.291Z</time>
</trkpt>
<trkpt lat="31.3723700" lon="34.5962100">
<ele>85.300003</ele>
<time>2024-11-26T13:34:02.291Z</time>
</trkpt>
<trkpt lat="31.3724800" lon="34.5967400">
<ele>86.550003</ele>
<time>2024-11-26T13:34:02.291Z</time>
</trkpt>
<trkpt lat="31.3725500" lon="34.5970100">
<ele>85.740005</ele>
<time>2024-11-26T13:34:02.291Z</time>
</trkpt>
<trkpt lat="31.3727400" lon="34.5974200">
<ele>79.849998</ele>
<time>2024-11-26T13:34:02.291Z</time>
</trkpt>
<trkpt lat="31.3727700" lon="34.5974500">
<ele>79.279999</ele>
<time>2024-11-26T13:34:02.291Z</time>
</trkpt>
<trkpt lat="31.3729200" lon="34.5977000">
<ele>79.580002</ele>
<time>2024-11-26T13:34:02.291Z</time>
</trkpt>
<trkpt lat="31.3730200" lon="34.5977100">
<ele>79.540001</ele>
<time>2024-11-26T13:34:02.291Z</time>
</trkpt>
<trkpt lat="31.3731500" lon="34.5977200">
<ele>81.279999</ele>
<time>2024-11-26T13:34:02.291Z</time>
</trkpt>
<trkpt lat="31.3734300" lon="34.5977300">
<ele>86.279999</ele>
<time>2024-11-26T13:34:02.291Z</time>
</trkpt>
<trkpt lat="31.3737400" lon="34.5980000">
<ele>96.040001</ele>
<time>2024-11-26T13:34:02.291Z</time>
</trkpt>
<trkpt lat="31.3740800" lon="34.5983300">
<ele>105.919998</ele>
<time>2024-11-26T13:34:02.291Z</time>
</trkpt>
<trkpt lat="31.3741700" lon="34.5985000">
<ele>103.000000</ele>
<time>2024-11-26T13:34:02.291Z</time>
</trkpt>
<trkpt lat="31.3742700" lon="34.5987200">
<ele>101.250000</ele>
<time>2024-11-26T13:34:02.291Z</time>
</trkpt>
<trkpt lat="31.3744300" lon="34.5988800">
<ele>102.800003</ele>
<time>2024-11-26T13:34:02.291Z</time>
</trkpt>
<trkpt lat="31.3746700" lon="34.5990000">
<ele>105.949997</ele>
<time>2024-11-26T13:34:02.291Z</time>
</trkpt>
<trkpt lat="31.3749200" lon="34.5991800">
<ele>108.930000</ele>
<time>2024-11-26T13:34:02.291Z</time>
</trkpt>
<trkpt lat="31.3754000" lon="34.5995500">
<ele>101.540001</ele>
<time>2024-11-26T13:34:02.291Z</time>
</trkpt>
<trkpt lat="31.3755600" lon="34.5998000">
<ele>97.099998</ele>
<time>2024-11-26T13:34:02.291Z</time>
</trkpt>
<trkpt lat="31.3758000" lon="34.5998400">
<ele>100.270004</ele>
<time>2024-11-26T13:34:02.291Z</time>
</trkpt>
<trkpt lat="31.3760000" lon="34.5998000">
<ele>101.569992</ele>
<time>2024-11-26T13:34:02.291Z</time>
</trkpt>
<trkpt lat="31.3761500" lon="34.5998000">
<ele>102.789993</ele>
<time>2024-11-26T13:34:02.291Z</time>
</trkpt>
<trkpt lat="31.3761900" lon="34.5997900">
<ele>103.180000</ele>
<time>2024-11-26T13:34:02.291Z</time>
</trkpt>
<trkpt lat="31.3762600" lon="34.5998100">
<ele>104.419998</ele>
<time>2024-11-26T13:34:02.291Z</time>
</trkpt>
<trkpt lat="31.3763000" lon="34.6001100">
<ele>105.710007</ele>
<time>2024-11-26T13:34:02.291Z</time>
</trkpt>
<trkpt lat="31.3762800" lon="34.6002200">
<ele>106.080002</ele>
<time>2024-11-26T13:34:02.291Z</time>
</trkpt>
<trkpt lat="31.3763100" lon="34.6003200">
<ele>105.930000</ele>
<time>2024-11-26T13:34:02.291Z</time>
</trkpt>
<trkpt lat="31.3764800" lon="34.6004200">
<ele>106.940002</ele>
<time>2024-11-26T13:34:02.291Z</time>
</trkpt>
<trkpt lat="31.3765300" lon="34.6004700">
<ele>107.110001</ele>
<time>2024-11-26T13:34:02.291Z</time>
</trkpt>
<trkpt lat="31.3767900" lon="34.6008600">
<ele>102.400002</ele>
<time>2024-11-26T13:34:02.291Z</time>
</trkpt>
<trkpt lat="31.3773500" lon="34.6012800">
<ele>106.849998</ele>
<time>2024-11-26T13:34:02.291Z</time>
</trkpt>
<trkpt lat="31.3776200" lon="34.6015900">
<ele>107.300003</ele>
<time>2024-11-26T13:34:02.291Z</time>
</trkpt>
<trkpt lat="31.3779000" lon="34.6020700">
<ele>106.940002</ele>
<time>2024-11-26T13:34:02.291Z</time>
</trkpt>
<trkpt lat="31.3779300" lon="34.6022900">
<ele>106.330002</ele>
<time>2024-11-26T13:34:02.291Z</time>
</trkpt>
<trkpt lat="31.3780000" lon="34.6023100">
<ele>105.889999</ele>
<time>2024-11-26T13:34:02.291Z</time>
</trkpt>
<trkpt lat="31.3781400" lon="34.6024100">
<ele>105.029999</ele>
<time>2024-11-26T13:34:02.291Z</time>
</trkpt>
<trkpt lat="31.3783800" lon="34.6026700">
<ele>104.030006</ele>
<time>2024-11-26T13:34:02.291Z</time>
</trkpt>
<trkpt lat="31.3785700" lon="34.6029400">
<ele>101.559998</ele>
<time>2024-11-26T13:34:02.291Z</time>
</trkpt>
<trkpt lat="31.3787300" lon="34.6030100">
<ele>98.959999</ele>
<time>2024-11-26T13:34:02.291Z</time>
</trkpt>
<trkpt lat="31.3788800" lon="34.6029500">
<ele>94.699997</ele>
<time>2024-11-26T13:34:02.291Z</time>
</trkpt>
<trkpt lat="31.3791200" lon="34.6026500">
<ele>95.080002</ele>
<time>2024-11-26T13:34:02.291Z</time>
</trkpt>
<trkpt lat="31.3792300" lon="34.6023400">
<ele>98.040001</ele>
<time>2024-11-26T13:34:02.291Z</time>
</trkpt>
<trkpt lat="31.3792700" lon="34.6021100">
<ele>99.559998</ele>
<time>2024-11-26T13:34:02.291Z</time>
</trkpt>
<trkpt lat="31.3793700" lon="34.6020800">
<ele>102.540001</ele>
<time>2024-11-26T13:34:02.291Z</time>
</trkpt>
<trkpt lat="31.3794400" lon="34.6020800">
<ele>104.790001</ele>
<time>2024-11-26T13:34:02.291Z</time>
</trkpt>
<trkpt lat="31.3795000" lon="34.6021200">
<ele>107.270004</ele>
<time>2024-11-26T13:34:02.291Z</time>
</trkpt>
<trkpt lat="31.3797200" lon="34.6025600">
<ele>116.299995</ele>
<time>2024-11-26T13:34:02.291Z</time>
</trkpt>
<trkpt lat="31.3799900" lon="34.6030600">
<ele>116.870003</ele>
<time>2024-11-26T13:34:02.291Z</time>
</trkpt>
<trkpt lat="31.3800000" lon="34.6033000">
<ele>117.879997</ele>
<time>2024-11-26T13:34:02.291Z</time>
</trkpt>
<trkpt lat="31.3800700" lon="34.6036500">
<ele>118.179993</ele>
<time>2024-11-26T13:34:02.291Z</time>
</trkpt>
<trkpt lat="31.3800800" lon="34.6038900">
<ele>119.290001</ele>
<time>2024-11-26T13:34:02.291Z</time>
</trkpt>
<trkpt lat="31.3800900" lon="34.6040800">
<ele>119.099998</ele>
<time>2024-11-26T13:34:02.291Z</time>
</trkpt>
<trkpt lat="31.3801000" lon="34.6043800">
<ele>114.330002</ele>
<time>2024-11-26T13:34:02.291Z</time>
</trkpt>
<trkpt lat="31.3802100" lon="34.6045400">
<ele>107.860001</ele>
<time>2024-11-26T13:34:02.291Z</time>
</trkpt>
<trkpt lat="31.3802100" lon="34.6046100">
<ele>105.019997</ele>
<time>2024-11-26T13:34:02.291Z</time>
</trkpt>
<trkpt lat="31.3800800" lon="34.6046300">
<ele>106.549995</ele>
<time>2024-11-26T13:34:02.291Z</time>
</trkpt>
<trkpt lat="31.3797400" lon="34.6045900">
<ele>111.290001</ele>
<time>2024-11-26T13:34:02.291Z</time>
</trkpt>
<trkpt lat="31.3795600" lon="34.6045100">
<ele>112.120003</ele>
<time>2024-11-26T13:34:02.291Z</time>
</trkpt>
<trkpt lat="31.3795300" lon="34.6045200">
<ele>112.059998</ele>
<time>2024-11-26T13:34:02.291Z</time>
</trkpt>
<trkpt lat="31.3795300" lon="34.6046400">
<ele>111.660004</ele>
<time>2024-11-26T13:34:02.291Z</time>
</trkpt>
<trkpt lat="31.3795000" lon="34.6046800">
<ele>111.690002</ele>
<time>2024-11-26T13:34:02.291Z</time>
</trkpt>
<trkpt lat="31.3793600" lon="34.6046700">
<ele>110.590004</ele>
<time>2024-11-26T13:34:02.291Z</time>
</trkpt>
<trkpt lat="31.3792100" lon="34.6048100">
<ele>106.589996</ele>
<time>2024-11-26T13:34:02.291Z</time>
</trkpt>
<trkpt lat="31.3792600" lon="34.6048700">
<ele>106.190002</ele>
<time>2024-11-26T13:34:02.291Z</time>
</trkpt>
<trkpt lat="31.3792500" lon="34.6049800">
<ele>104.320007</ele>
<time>2024-11-26T13:34:02.291Z</time>
</trkpt>
<trkpt lat="31.3790900" lon="34.6050700">
<ele>103.539993</ele>
<time>2024-11-26T13:34:02.291Z</time>
</trkpt>
<trkpt lat="31.3788700" lon="34.6051800">
<ele>100.299995</ele>
<time>2024-11-26T13:34:02.291Z</time>
</trkpt>
<trkpt lat="31.3787700" lon="34.6053400">
<ele>95.940002</ele>
<time>2024-11-26T13:34:02.291Z</time>
</trkpt>
<trkpt lat="31.3787700" lon="34.6054400">
<ele>95.370003</ele>
<time>2024-11-26T13:34:02.291Z</time>
</trkpt>
<trkpt lat="31.3788700" lon="34.6054700">
<ele>98.919998</ele>
<time>2024-11-26T13:34:02.291Z</time>
</trkpt>
<trkpt lat="31.3789600" lon="34.6054800">
<ele>101.199997</ele>
<time>2024-11-26T13:34:02.291Z</time>
</trkpt>
<trkpt lat="31.3789500" lon="34.6057700">
<ele>100.370003</ele>
<time>2024-11-26T13:34:02.291Z</time>
</trkpt>
<trkpt lat="31.3789400" lon="34.6059900">
<ele>100.360001</ele>
<time>2024-11-26T13:34:02.291Z</time>
</trkpt>
<trkpt lat="31.3789400" lon="34.6060300">
<ele>100.419998</ele>
<time>2024-11-26T13:34:02.291Z</time>
</trkpt>
<trkpt lat="31.3788900" lon="34.6062200">
<ele>99.610001</ele>
<time>2024-11-26T13:34:02.291Z</time>
</trkpt>
<trkpt lat="31.3788800" lon="34.6063600">
<ele>98.880005</ele>
<time>2024-11-26T13:34:02.291Z</time>
</trkpt>
<trkpt lat="31.3788900" lon="34.6064800">
<ele>97.680000</ele>
<time>2024-11-26T13:34:02.291Z</time>
</trkpt>
<trkpt lat="31.3789300" lon="34.6065400">
<ele>96.620003</ele>
<time>2024-11-26T13:34:02.291Z</time>
</trkpt>
<trkpt lat="31.3791800" lon="34.6065600">
<ele>95.430000</ele>
<time>2024-11-26T13:34:02.291Z</time>
</trkpt>
<trkpt lat="31.3793400" lon="34.6066400">
<ele>95.720001</ele>
<time>2024-11-26T13:34:02.291Z</time>
</trkpt>
<trkpt lat="31.3794900" lon="34.6066300">
<ele>96.270004</ele>
<time>2024-11-26T13:34:02.291Z</time>
</trkpt>
<trkpt lat="31.3798200" lon="34.6064800">
<ele>96.049995</ele>
<time>2024-11-26T13:34:02.291Z</time>
</trkpt>
<trkpt lat="31.3799100" lon="34.6065100">
<ele>95.680000</ele>
<time>2024-11-26T13:34:02.291Z</time>
</trkpt>
<trkpt lat="31.3799300" lon="34.6066300">
<ele>97.800003</ele>
<time>2024-11-26T13:34:02.291Z</time>
</trkpt>
<trkpt lat="31.3799100" lon="34.6069500">
<ele>101.409996</ele>
<time>2024-11-26T13:34:02.291Z</time>
</trkpt>
<trkpt lat="31.3801000" lon="34.6069600">
<ele>103.229996</ele>
<time>2024-11-26T13:34:02.291Z</time>
</trkpt>
<trkpt lat="31.3801900" lon="34.6071200">
<ele>105.519997</ele>
<time>2024-11-26T13:34:02.291Z</time>
</trkpt>
<trkpt lat="31.3802500" lon="34.6070900">
<ele>105.799995</ele>
<time>2024-11-26T13:34:02.291Z</time>
</trkpt>
<trkpt lat="31.3802600" lon="34.6072000">
<ele>106.709999</ele>
<time>2024-11-26T13:34:02.291Z</time>
</trkpt>
<trkpt lat="31.3801900" lon="34.6073100">
<ele>105.420006</ele>
<time>2024-11-26T13:34:02.291Z</time>
</trkpt>
<trkpt lat="31.3800700" lon="34.6073300">
<ele>104.340004</ele>
<time>2024-11-26T13:34:02.291Z</time>
</trkpt>
<trkpt lat="31.3799400" lon="34.6073600">
<ele>103.509995</ele>
<time>2024-11-26T13:34:02.291Z</time>
</trkpt>
<trkpt lat="31.3798200" lon="34.6074900">
<ele>103.309998</ele>
<time>2024-11-26T13:34:02.291Z</time>
</trkpt>
<trkpt lat="31.3798000" lon="34.6075800">
<ele>102.820000</ele>
<time>2024-11-26T13:34:02.291Z</time>
</trkpt>
<trkpt lat="31.3798000" lon="34.6080600">
<ele>100.680000</ele>
<time>2024-11-26T13:34:02.291Z</time>
</trkpt>
<trkpt lat="31.3798200" lon="34.6082200">
<ele>99.259995</ele>
<time>2024-11-26T13:34:02.291Z</time>
</trkpt>
<trkpt lat="31.3799000" lon="34.6082500">
<ele>98.509995</ele>
<time>2024-11-26T13:34:02.291Z</time>
</trkpt>
<trkpt lat="31.3800100" lon="34.6082000">
<ele>98.489998</ele>
<time>2024-11-26T13:34:02.291Z</time>
</trkpt>
<trkpt lat="31.3801600" lon="34.6082100">
<ele>99.229996</ele>
<time>2024-11-26T13:34:02.291Z</time>
</trkpt>
<trkpt lat="31.3802200" lon="34.6082300">
<ele>99.409996</ele>
<time>2024-11-26T13:34:02.291Z</time>
</trkpt>
<trkpt lat="31.3802400" lon="34.6083600">
<ele>98.690002</ele>
<time>2024-11-26T13:34:02.291Z</time>
</trkpt>
<trkpt lat="31.3802400" lon="34.6084800">
<ele>98.509995</ele>
<time>2024-11-26T13:34:02.291Z</time>
</trkpt>
<trkpt lat="31.3801000" lon="34.6086300">
<ele>95.980003</ele>
<time>2024-11-26T13:34:02.291Z</time>
</trkpt>
<trkpt lat="31.3799400" lon="34.6086700">
<ele>94.669998</ele>
<time>2024-11-26T13:34:02.291Z</time>
</trkpt>
<trkpt lat="31.3798900" lon="34.6087200">
<ele>94.949997</ele>
<time>2024-11-26T13:34:02.291Z</time>
</trkpt>
<trkpt lat="31.3798400" lon="34.6088700">
<ele>95.220001</ele>
<time>2024-11-26T13:34:02.291Z</time>
</trkpt>
<trkpt lat="31.3798300" lon="34.6089800">
<ele>95.439995</ele>
<time>2024-11-26T13:34:02.291Z</time>
</trkpt>
<trkpt lat="31.3798500" lon="34.6090200">
<ele>95.670006</ele>
<time>2024-11-26T13:34:02.291Z</time>
</trkpt>
<trkpt lat="31.3798900" lon="34.6090200">
<ele>95.899994</ele>
<time>2024-11-26T13:34:02.291Z</time>
</trkpt>
<trkpt lat="31.3799200" lon="34.6090200">
<ele>96.070000</ele>
<time>2024-11-26T13:34:02.291Z</time>
</trkpt>
<trkpt lat="31.3804200" lon="34.6088600">
<ele>101.979996</ele>
<time>2024-11-26T13:34:02.291Z</time>
</trkpt>
<trkpt lat="31.3806600" lon="34.6086100">
<ele>105.130005</ele>
<time>2024-11-26T13:34:02.291Z</time>
</trkpt>
<trkpt lat="31.3809300" lon="34.6084800">
<ele>109.520004</ele>
<time>2024-11-26T13:34:02.291Z</time>
</trkpt>
<trkpt lat="31.3810300" lon="34.6084000">
<ele>111.340004</ele>
<time>2024-11-26T13:34:02.291Z</time>
</trkpt>
<trkpt lat="31.3813300" lon="34.6082700">
<ele>107.750000</ele>
<time>2024-11-26T13:34:02.291Z</time>
</trkpt>
<trkpt lat="31.3814600" lon="34.6082000">
<ele>107.320000</ele>
<time>2024-11-26T13:34:02.291Z</time>
</trkpt>
<trkpt lat="31.3821300" lon="34.6080100">
<ele>111.430000</ele>
<time>2024-11-26T13:34:02.291Z</time>
</trkpt>
<trkpt lat="31.3822000" lon="34.6081100">
<ele>109.789993</ele>
<time>2024-11-26T13:34:02.291Z</time>
</trkpt>
<trkpt lat="31.3821500" lon="34.6081900">
<ele>108.209999</ele>
<time>2024-11-26T13:34:02.291Z</time>
</trkpt>
<trkpt lat="31.3820600" lon="34.6082800">
<ele>106.980003</ele>
<time>2024-11-26T13:34:02.291Z</time>
</trkpt>
<trkpt lat="31.3819900" lon="34.6083800">
<ele>106.589996</ele>
<time>2024-11-26T13:34:02.291Z</time>
</trkpt>
<trkpt lat="31.3819000" lon="34.6088100">
<ele>102.520004</ele>
<time>2024-11-26T13:34:02.291Z</time>
</trkpt>
<trkpt lat="31.3815800" lon="34.6088500">
<ele>100.560005</ele>
<time>2024-11-26T13:34:02.291Z</time>
</trkpt>
<trkpt lat="31.3813000" lon="34.6088400">
<ele>103.560005</ele>
<time>2024-11-26T13:34:02.291Z</time>
</trkpt>
<trkpt lat="31.3811500" lon="34.6090400">
<ele>98.880005</ele>
<time>2024-11-26T13:34:02.291Z</time>
</trkpt>
<trkpt lat="31.3811400" lon="34.6091300">
<ele>96.900002</ele>
<time>2024-11-26T13:34:02.291Z</time>
</trkpt>
<trkpt lat="31.3811500" lon="34.6091700">
<ele>96.160004</ele>
<time>2024-11-26T13:34:02.291Z</time>
</trkpt>
<trkpt lat="31.3812500" lon="34.6092400">
<ele>97.289993</ele>
<time>2024-11-26T13:34:02.291Z</time>
</trkpt>
<trkpt lat="31.3813200" lon="34.6094900">
<ele>101.330002</ele>
<time>2024-11-26T13:34:02.291Z</time>
</trkpt>
<trkpt lat="31.3813300" lon="34.6097400">
<ele>104.430000</ele>
<time>2024-11-26T13:34:02.291Z</time>
</trkpt>
<trkpt lat="31.3813000" lon="34.6099400">
<ele>102.939995</ele>
<time>2024-11-26T13:34:02.291Z</time>
</trkpt>
<trkpt lat="31.3813100" lon="34.6100900">
<ele>101.610001</ele>
<time>2024-11-26T13:34:02.291Z</time>
</trkpt>
<trkpt lat="31.3813800" lon="34.6101600">
<ele>101.070000</ele>
<time>2024-11-26T13:34:02.291Z</time>
</trkpt>
<trkpt lat="31.3814700" lon="34.6101300">
<ele>101.910004</ele>
<time>2024-11-26T13:34:02.291Z</time>
</trkpt>
<trkpt lat="31.3818000" lon="34.6097900">
<ele>104.239998</ele>
<time>2024-11-26T13:34:02.291Z</time>
</trkpt>
<trkpt lat="31.3819700" lon="34.6097700">
<ele>105.100006</ele>
<time>2024-11-26T13:34:02.291Z</time>
</trkpt>
<trkpt lat="31.3820100" lon="34.6098200">
<ele>105.360001</ele>
<time>2024-11-26T13:34:02.291Z</time>
</trkpt>
<trkpt lat="31.3821600" lon="34.6101000">
<ele>105.610001</ele>
<time>2024-11-26T13:34:02.291Z</time>
</trkpt>
<trkpt lat="31.3822600" lon="34.6102500">
<ele>104.669998</ele>
<time>2024-11-26T13:34:02.291Z</time>
</trkpt>
<trkpt lat="31.3822700" lon="34.6103700">
<ele>103.430000</ele>
<time>2024-11-26T13:34:02.291Z</time>
</trkpt>
<trkpt lat="31.3824100" lon="34.6105300">
<ele>100.799995</ele>
<time>2024-11-26T13:34:02.291Z</time>
</trkpt>
<trkpt lat="31.3827700" lon="34.6103300">
<ele>99.229996</ele>
<time>2024-11-26T13:34:02.291Z</time>
</trkpt>
<trkpt lat="31.3829400" lon="34.6103300">
<ele>102.329994</ele>
<time>2024-11-26T13:34:02.291Z</time>
</trkpt>
<trkpt lat="31.3829700" lon="34.6104100">
<ele>103.590004</ele>
<time>2024-11-26T13:34:02.291Z</time>
</trkpt>
<trkpt lat="31.3825900" lon="34.6107100">
<ele>102.419998</ele>
<time>2024-11-26T13:34:02.291Z</time>
</trkpt>
<trkpt lat="31.3818700" lon="34.6112100">
<ele>103.209999</ele>
<time>2024-11-26T13:34:02.291Z</time>
</trkpt>
<trkpt lat="31.3817700" lon="34.6113100">
<ele>102.840004</ele>
<time>2024-11-26T13:34:02.291Z</time>
</trkpt>
<trkpt lat="31.3817000" lon="34.6114000">
<ele>102.709999</ele>
<time>2024-11-26T13:34:02.291Z</time>
</trkpt>
<trkpt lat="31.3816300" lon="34.6115000">
<ele>104.200005</ele>
<time>2024-11-26T13:34:02.291Z</time>
</trkpt>
<trkpt lat="31.3814000" lon="34.6121300">
<ele>101.519997</ele>
<time>2024-11-26T13:34:02.291Z</time>
</trkpt>
<trkpt lat="31.3813600" lon="34.6122100">
<ele>100.820007</ele>
<time>2024-11-26T13:34:02.291Z</time>
</trkpt>
<trkpt lat="31.3812500" lon="34.6123400">
<ele>101.480003</ele>
<time>2024-11-26T13:34:02.291Z</time>
</trkpt>
<trkpt lat="31.3811000" lon="34.6125300">
<ele>103.610001</ele>
<time>2024-11-26T13:34:02.291Z</time>
</trkpt>
<trkpt lat="31.3809100" lon="34.6123400">
<ele>99.250000</ele>
<time>2024-11-26T13:34:02.291Z</time>
</trkpt>
<trkpt lat="31.3803600" lon="34.6126200">
<ele>103.820000</ele>
<time>2024-11-26T13:34:02.291Z</time>
</trkpt>
<trkpt lat="31.3801500" lon="34.6131100">
<ele>103.650002</ele>
<time>2024-11-26T13:34:02.291Z</time>
</trkpt>
<trkpt lat="31.3801400" lon="34.6132400">
<ele>103.519997</ele>
<time>2024-11-26T13:34:02.291Z</time>
</trkpt>
<trkpt lat="31.3803000" lon="34.6132900">
<ele>106.780006</ele>
<time>2024-11-26T13:34:02.291Z</time>
</trkpt>
<trkpt lat="31.3809200" lon="34.6134400">
<ele>101.880005</ele>
<time>2024-11-26T13:34:02.291Z</time>
</trkpt>
<trkpt lat="31.3810600" lon="34.6136800">
<ele>104.200005</ele>
<time>2024-11-26T13:34:02.291Z</time>
</trkpt>
<trkpt lat="31.3809000" lon="34.6139600">
<ele>103.089996</ele>
<time>2024-11-26T13:34:02.291Z</time>
</trkpt>
<trkpt lat="31.3808500" lon="34.6141800">
<ele>99.800003</ele>
<time>2024-11-26T13:34:02.291Z</time>
</trkpt>
<trkpt lat="31.3808100" lon="34.6145600">
<ele>95.650002</ele>
<time>2024-11-26T13:34:02.291Z</time>
</trkpt>
<trkpt lat="31.3808100" lon="34.6148900">
<ele>93.350006</ele>
<time>2024-11-26T13:34:02.291Z</time>
</trkpt>
<trkpt lat="31.3808000" lon="34.6150200">
<ele>92.800003</ele>
<time>2024-11-26T13:34:02.291Z</time>
</trkpt>
<trkpt lat="31.3808000" lon="34.6151600">
<ele>92.229996</ele>
<time>2024-11-26T13:34:02.291Z</time>
</trkpt>
<trkpt lat="31.3808000" lon="34.6153000">
<ele>91.700005</ele>
<time>2024-11-26T13:34:02.291Z</time>
</trkpt>
<trkpt lat="31.3807900" lon="34.6154100">
<ele>91.359993</ele>
<time>2024-11-26T13:34:02.291Z</time>
</trkpt>
<trkpt lat="31.3803500" lon="34.6156700">
<ele>88.449997</ele>
<time>2024-11-26T13:34:02.291Z</time>
</trkpt>
<trkpt lat="31.3801300" lon="34.6157800">
<ele>86.739998</ele>
<time>2024-11-26T13:34:02.291Z</time>
</trkpt>
<trkpt lat="31.3803100" lon="34.6164500">
<ele>87.089996</ele>
<time>2024-11-26T13:34:02.291Z</time>
</trkpt>
<trkpt lat="31.3805700" lon="34.6166800">
<ele>93.430000</ele>
<time>2024-11-26T13:34:02.291Z</time>
</trkpt>
<trkpt lat="31.3807500" lon="34.6166400">
<ele>93.570000</ele>
<time>2024-11-26T13:34:02.291Z</time>
</trkpt>
<trkpt lat="31.3809700" lon="34.6168700">
<ele>99.690002</ele>
<time>2024-11-26T13:34:02.291Z</time>
</trkpt>
<trkpt lat="31.3810000" lon="34.6168600">
<ele>99.800003</ele>
<time>2024-11-26T13:34:02.291Z</time>
</trkpt>
<trkpt lat="31.3811900" lon="34.6167900">
<ele>99.589996</ele>
<time>2024-11-26T13:34:02.291Z</time>
</trkpt>
<trkpt lat="31.3814000" lon="34.6164400">
<ele>94.629997</ele>
<time>2024-11-26T13:34:02.291Z</time>
</trkpt>
<trkpt lat="31.3816200" lon="34.6163900">
<ele>96.360001</ele>
<time>2024-11-26T13:34:02.291Z</time>
</trkpt>
<trkpt lat="31.3820400" lon="34.6164800">
<ele>100.060005</ele>
<time>2024-11-26T13:34:02.291Z</time>
</trkpt>
<trkpt lat="31.3822700" lon="34.6166800">
<ele>104.220001</ele>
<time>2024-11-26T13:34:02.291Z</time>
</trkpt>
<trkpt lat="31.3824200" lon="34.6166400">
<ele>105.779999</ele>
<time>2024-11-26T13:34:02.291Z</time>
</trkpt>
<trkpt lat="31.3825300" lon="34.6165400">
<ele>104.330002</ele>
<time>2024-11-26T13:34:02.291Z</time>
</trkpt>
<trkpt lat="31.3828000" lon="34.6166000">
<ele>109.919998</ele>
<time>2024-11-26T13:34:02.291Z</time>
</trkpt>
<trkpt lat="31.3830100" lon="34.6165200">
<ele>108.080002</ele>
<time>2024-11-26T13:34:02.291Z</time>
</trkpt>
<trkpt lat="31.3830100" lon="34.6163000">
<ele>103.680000</ele>
<time>2024-11-26T13:34:02.291Z</time>
</trkpt>
<trkpt lat="31.3831300" lon="34.6160800">
<ele>106.300003</ele>
<time>2024-11-26T13:34:02.291Z</time>
</trkpt>
<trkpt lat="31.3834500" lon="34.6159300">
<ele>108.869995</ele>
<time>2024-11-26T13:34:02.291Z</time>
</trkpt>
<trkpt lat="31.3839000" lon="34.6159700">
<ele>111.400002</ele>
<time>2024-11-26T13:34:02.291Z</time>
</trkpt>
<trkpt lat="31.3841800" lon="34.6158800">
<ele>108.590004</ele>
<time>2024-11-26T13:34:02.291Z</time>
</trkpt>
<trkpt lat="31.3844100" lon="34.6158700">
<ele>107.189995</ele>
<time>2024-11-26T13:34:02.291Z</time>
</trkpt>
<trkpt lat="31.3845300" lon="34.6158400">
<ele>106.699997</ele>
<time>2024-11-26T13:34:02.291Z</time>
</trkpt>
<trkpt lat="31.3849300" lon="34.6155600">
<ele>104.729996</ele>
<time>2024-11-26T13:34:02.291Z</time>
</trkpt>
<trkpt lat="31.3852100" lon="34.6155200">
<ele>100.260002</ele>
<time>2024-11-26T13:34:02.291Z</time>
</trkpt>
<trkpt lat="31.3855100" lon="34.6155800">
<ele>103.549995</ele>
<time>2024-11-26T13:34:02.291Z</time>
</trkpt>
<trkpt lat="31.3856500" lon="34.6157000">
<ele>105.410004</ele>
<time>2024-11-26T13:34:02.291Z</time>
</trkpt>
<trkpt lat="31.3859500" lon="34.6162500">
<ele>109.919998</ele>
<time>2024-11-26T13:34:02.291Z</time>
</trkpt>
<trkpt lat="31.3860300" lon="34.6165700">
<ele>108.300003</ele>
<time>2024-11-26T13:34:02.291Z</time>
</trkpt>
<trkpt lat="31.3861000" lon="34.6168900">
<ele>107.159996</ele>
<time>2024-11-26T13:34:02.291Z</time>
</trkpt>
<trkpt lat="31.3861600" lon="34.6173100">
<ele>105.059998</ele>
<time>2024-11-26T13:34:02.291Z</time>
</trkpt>
<trkpt lat="31.3862000" lon="34.6174900">
<ele>105.309998</ele>
<time>2024-11-26T13:34:02.291Z</time>
</trkpt>
<trkpt lat="31.3861700" lon="34.6180600">
<ele>105.519997</ele>
<time>2024-11-26T13:34:02.291Z</time>
</trkpt>
<trkpt lat="31.3862700" lon="34.6186000">
<ele>101.150002</ele>
<time>2024-11-26T13:34:02.291Z</time>
</trkpt>
<trkpt lat="31.3862900" lon="34.6188000">
<ele>102.139999</ele>
<time>2024-11-26T13:34:02.291Z</time>
</trkpt>
<trkpt lat="31.3862800" lon="34.6190100">
<ele>103.760002</ele>
<time>2024-11-26T13:34:02.291Z</time>
</trkpt>
<trkpt lat="31.3863000" lon="34.6192200">
<ele>104.459999</ele>
<time>2024-11-26T13:34:02.291Z</time>
</trkpt>
<trkpt lat="31.3863800" lon="34.6194600">
<ele>103.959999</ele>
<time>2024-11-26T13:34:02.291Z</time>
</trkpt>
<trkpt lat="31.3865500" lon="34.6196700">
<ele>104.800003</ele>
<time>2024-11-26T13:34:02.291Z</time>
</trkpt>
<trkpt lat="31.3866400" lon="34.6199600">
<ele>105.599998</ele>
<time>2024-11-26T13:34:02.291Z</time>
</trkpt>
<trkpt lat="31.3866000" lon="34.6201400">
<ele>104.899994</ele>
<time>2024-11-26T13:34:02.291Z</time>
</trkpt>
<trkpt lat="31.3866300" lon="34.6202200">
<ele>104.919998</ele>
<time>2024-11-26T13:34:02.291Z</time>
</trkpt>
<trkpt lat="31.3869800" lon="34.6204200">
<ele>108.510002</ele>
<time>2024-11-26T13:34:02.291Z</time>
</trkpt>
<trkpt lat="31.3872000" lon="34.6203800">
<ele>108.370003</ele>
<time>2024-11-26T13:34:02.291Z</time>
</trkpt>
<trkpt lat="31.3872600" lon="34.6205200">
<ele>108.549995</ele>
<time>2024-11-26T13:34:02.291Z</time>
</trkpt>
<trkpt lat="31.3872100" lon="34.6206500">
<ele>109.680000</ele>
<time>2024-11-26T13:34:02.291Z</time>
</trkpt>
<trkpt lat="31.3872200" lon="34.6208500">
<ele>111.119995</ele>
<time>2024-11-26T13:34:02.291Z</time>
</trkpt>
<trkpt lat="31.3874000" lon="34.6209600">
<ele>110.979996</ele>
<time>2024-11-26T13:34:02.291Z</time>
</trkpt>
<trkpt lat="31.3875300" lon="34.6211800">
<ele>110.459999</ele>
<time>2024-11-26T13:34:02.291Z</time>
</trkpt>
<trkpt lat="31.3878400" lon="34.6215700">
<ele>101.150002</ele>
<time>2024-11-26T13:34:02.291Z</time>
</trkpt>
<trkpt lat="31.3880500" lon="34.6216400">
<ele>97.630005</ele>
<time>2024-11-26T13:34:02.291Z</time>
</trkpt>
<trkpt lat="31.3881900" lon="34.6216400">
<ele>98.840004</ele>
<time>2024-11-26T13:34:02.291Z</time>
</trkpt>
<trkpt lat="31.3884400" lon="34.6216000">
<ele>102.599998</ele>
<time>2024-11-26T13:34:02.291Z</time>
</trkpt>
<trkpt lat="31.3886600" lon="34.6213000">
<ele>106.300003</ele>
<time>2024-11-26T13:34:02.291Z</time>
</trkpt>
<trkpt lat="31.3889800" lon="34.6212100">
<ele>107.590004</ele>
<time>2024-11-26T13:34:02.291Z</time>
</trkpt>
<trkpt lat="31.3891800" lon="34.6210800">
<ele>107.120003</ele>
<time>2024-11-26T13:34:02.291Z</time>
</trkpt>
<trkpt lat="31.3892500" lon="34.6209100">
<ele>107.339996</ele>
<time>2024-11-26T13:34:02.291Z</time>
</trkpt>
<trkpt lat="31.3892800" lon="34.6206400">
<ele>105.959999</ele>
<time>2024-11-26T13:34:02.291Z</time>
</trkpt>
<trkpt lat="31.3893400" lon="34.6204600">
<ele>104.419998</ele>
<time>2024-11-26T13:34:02.291Z</time>
</trkpt>
<trkpt lat="31.3893600" lon="34.6204400">
<ele>104.119995</ele>
<time>2024-11-26T13:34:02.291Z</time>
</trkpt>
<trkpt lat="31.3894500" lon="34.6203600">
<ele>102.490005</ele>
<time>2024-11-26T13:34:02.291Z</time>
</trkpt>
<trkpt lat="31.3895400" lon="34.6203400">
<ele>102.389999</ele>
<time>2024-11-26T13:34:02.291Z</time>
</trkpt>
<trkpt lat="31.3896700" lon="34.6203000">
<ele>102.149994</ele>
<time>2024-11-26T13:34:02.291Z</time>
</trkpt>
<trkpt lat="31.3900200" lon="34.6195600">
<ele>102.320000</ele>
<time>2024-11-26T13:34:02.291Z</time>
</trkpt>
<trkpt lat="31.3901700" lon="34.6193300">
<ele>98.820000</ele>
<time>2024-11-26T13:34:02.291Z</time>
</trkpt>
<trkpt lat="31.3902400" lon="34.6190900">
<ele>95.779999</ele>
<time>2024-11-26T13:34:02.291Z</time>
</trkpt>
<trkpt lat="31.3904100" lon="34.6189500">
<ele>98.110001</ele>
<time>2024-11-26T13:34:02.291Z</time>
</trkpt>
<trkpt lat="31.3906400" lon="34.6186800">
<ele>102.559998</ele>
<time>2024-11-26T13:34:02.291Z</time>
</trkpt>
<trkpt lat="31.3907500" lon="34.6184900">
<ele>102.000000</ele>
<time>2024-11-26T13:34:02.291Z</time>
</trkpt>
<trkpt lat="31.3909000" lon="34.6183800">
<ele>101.140007</ele>
<time>2024-11-26T13:34:02.291Z</time>
</trkpt>
<trkpt lat="31.3910000" lon="34.6182500">
<ele>100.159996</ele>
<time>2024-11-26T13:34:02.291Z</time>
</trkpt>
<trkpt lat="31.3911000" lon="34.6180100">
<ele>99.460007</ele>
<time>2024-11-26T13:34:02.291Z</time>
</trkpt>
<trkpt lat="31.3912900" lon="34.6178200">
<ele>99.839996</ele>
<time>2024-11-26T13:34:02.291Z</time>
</trkpt>
<trkpt lat="31.3914100" lon="34.6176800">
<ele>99.150002</ele>
<time>2024-11-26T13:34:02.291Z</time>
</trkpt>
<trkpt lat="31.3917800" lon="34.6175900">
<ele>101.680000</ele>
<time>2024-11-26T13:34:02.291Z</time>
</trkpt>
<trkpt lat="31.3920400" lon="34.6175800">
<ele>108.310005</ele>
<time>2024-11-26T13:34:02.291Z</time>
</trkpt>
<trkpt lat="31.3922400" lon="34.6175800">
<ele>110.519997</ele>
<time>2024-11-26T13:34:02.291Z</time>
</trkpt>
<trkpt lat="31.3923600" lon="34.6176200">
<ele>109.410004</ele>
<time>2024-11-26T13:34:02.291Z</time>
</trkpt>
<trkpt lat="31.3929200" lon="34.6172800">
<ele>101.130005</ele>
<time>2024-11-26T13:34:02.291Z</time>
</trkpt>
<trkpt lat="31.3937600" lon="34.6172600">
<ele>99.429993</ele>
<time>2024-11-26T13:34:02.291Z</time>
</trkpt>
<trkpt lat="31.3944300" lon="34.6171800">
<ele>116.520004</ele>
<time>2024-11-26T13:34:02.291Z</time>
</trkpt>
<trkpt lat="31.3946000" lon="34.6171800">
<ele>116.129997</ele>
<time>2024-11-26T13:34:02.291Z</time>
</trkpt>
<trkpt lat="31.3946500" lon="34.6172600">
<ele>115.220001</ele>
<time>2024-11-26T13:34:02.291Z</time>
</trkpt>
<trkpt lat="31.3946600" lon="34.6173800">
<ele>112.659996</ele>
<time>2024-11-26T13:34:02.291Z</time>
</trkpt>
<trkpt lat="31.3945600" lon="34.6175900">
<ele>111.110001</ele>
<time>2024-11-26T13:34:02.291Z</time>
</trkpt>
<trkpt lat="31.3943300" lon="34.6176700">
<ele>108.150002</ele>
<time>2024-11-26T13:34:02.291Z</time>
</trkpt>
<trkpt lat="31.3938900" lon="34.6176900">
<ele>98.019997</ele>
<time>2024-11-26T13:34:02.291Z</time>
</trkpt>
<trkpt lat="31.3935900" lon="34.6177800">
<ele>100.419998</ele>
<time>2024-11-26T13:34:02.291Z</time>
</trkpt>
<trkpt lat="31.3934000" lon="34.6177700">
<ele>103.610001</ele>
<time>2024-11-26T13:34:02.291Z</time>
</trkpt>
<trkpt lat="31.3924400" lon="34.6179200">
<ele>106.529999</ele>
<time>2024-11-26T13:34:02.291Z</time>
</trkpt>
<trkpt lat="31.3923300" lon="34.6181100">
<ele>106.589996</ele>
<time>2024-11-26T13:34:02.291Z</time>
</trkpt>
<trkpt lat="31.3922000" lon="34.6182200">
<ele>106.449997</ele>
<time>2024-11-26T13:34:02.291Z</time>
</trkpt>
<trkpt lat="31.3919200" lon="34.6182700">
<ele>104.959999</ele>
<time>2024-11-26T13:34:02.291Z</time>
</trkpt>
<trkpt lat="31.3917900" lon="34.6184700">
<ele>104.869995</ele>
<time>2024-11-26T13:34:02.291Z</time>
</trkpt>
<trkpt lat="31.3916300" lon="34.6185700">
<ele>105.470001</ele>
<time>2024-11-26T13:34:02.291Z</time>
</trkpt>
<trkpt lat="31.3914200" lon="34.6189300">
<ele>106.879997</ele>
<time>2024-11-26T13:34:02.291Z</time>
</trkpt>
<trkpt lat="31.3912300" lon="34.6192200">
<ele>108.429993</ele>
<time>2024-11-26T13:34:02.291Z</time>
</trkpt>
<trkpt lat="31.3910400" lon="34.6193600">
<ele>108.579994</ele>
<time>2024-11-26T13:34:02.291Z</time>
</trkpt>
<trkpt lat="31.3908100" lon="34.6195800">
<ele>109.870003</ele>
<time>2024-11-26T13:34:02.291Z</time>
</trkpt>
<trkpt lat="31.3907900" lon="34.6197400">
<ele>111.989998</ele>
<time>2024-11-26T13:34:02.291Z</time>
</trkpt>
<trkpt lat="31.3908900" lon="34.6199700">
<ele>113.970001</ele>
<time>2024-11-26T13:34:02.291Z</time>
</trkpt>
<trkpt lat="31.3910200" lon="34.6201400">
<ele>115.849998</ele>
<time>2024-11-26T13:34:02.291Z</time>
</trkpt>
<trkpt lat="31.3910800" lon="34.6203900">
<ele>117.809998</ele>
<time>2024-11-26T13:34:02.291Z</time>
</trkpt>
<trkpt lat="31.3910700" lon="34.6209700">
<ele>118.159996</ele>
<time>2024-11-26T13:34:02.291Z</time>
</trkpt>
<trkpt lat="31.3912100" lon="34.6211800">
<ele>116.470001</ele>
<time>2024-11-26T13:34:02.291Z</time>
</trkpt>
<trkpt lat="31.3911200" lon="34.6213900">
<ele>112.040001</ele>
<time>2024-11-26T13:34:02.291Z</time>
</trkpt>
<trkpt lat="31.3908900" lon="34.6214100">
<ele>108.099998</ele>
<time>2024-11-26T13:34:02.291Z</time>
</trkpt>
<trkpt lat="31.3906000" lon="34.6214100">
<ele>105.690002</ele>
<time>2024-11-26T13:34:02.291Z</time>
</trkpt>
<trkpt lat="31.3903800" lon="34.6216300">
<ele>100.070000</ele>
<time>2024-11-26T13:34:02.291Z</time>
</trkpt>
<trkpt lat="31.3902500" lon="34.6217300">
<ele>100.709999</ele>
<time>2024-11-26T13:34:02.291Z</time>
</trkpt>
<trkpt lat="31.3896600" lon="34.6218500">
<ele>108.450005</ele>
<time>2024-11-26T13:34:02.291Z</time>
</trkpt>
<trkpt lat="31.3889900" lon="34.6224500">
<ele>105.900002</ele>
<time>2024-11-26T13:34:02.291Z</time>
</trkpt>
<trkpt lat="31.3890100" lon="34.6227600">
<ele>110.820000</ele>
<time>2024-11-26T13:34:02.291Z</time>
</trkpt>
<trkpt lat="31.3889500" lon="34.6229700">
<ele>112.560005</ele>
<time>2024-11-26T13:34:02.291Z</time>
</trkpt>
<trkpt lat="31.3889200" lon="34.6233000">
<ele>113.200005</ele>
<time>2024-11-26T13:34:02.291Z</time>
</trkpt>
<trkpt lat="31.3889400" lon="34.6234000">
<ele>113.170006</ele>
<time>2024-11-26T13:34:02.291Z</time>
</trkpt>
<trkpt lat="31.3890900" lon="34.6237800">
<ele>114.509995</ele>
<time>2024-11-26T13:34:02.291Z</time>
</trkpt>
<trkpt lat="31.3891100" lon="34.6241200">
<ele>115.119995</ele>
<time>2024-11-26T13:34:02.291Z</time>
</trkpt>
<trkpt lat="31.3895400" lon="34.6247600">
<ele>115.970001</ele>
<time>2024-11-26T13:34:02.291Z</time>
</trkpt>
<trkpt lat="31.3895500" lon="34.6249300">
<ele>114.279999</ele>
<time>2024-11-26T13:34:02.291Z</time>
</trkpt>
<trkpt lat="31.3895500" lon="34.6251600">
<ele>112.730003</ele>
<time>2024-11-26T13:34:02.291Z</time>
</trkpt>
<trkpt lat="31.3895700" lon="34.6253000">
<ele>112.089996</ele>
<time>2024-11-26T13:34:02.291Z</time>
</trkpt>
<trkpt lat="31.3896700" lon="34.6253200">
<ele>112.760002</ele>
<time>2024-11-26T13:34:02.291Z</time>
</trkpt>
<trkpt lat="31.3898800" lon="34.6253100">
<ele>113.289993</ele>
<time>2024-11-26T13:34:02.291Z</time>
</trkpt>
<trkpt lat="31.3901400" lon="34.6255400">
<ele>106.889999</ele>
<time>2024-11-26T13:34:02.291Z</time>
</trkpt>
<trkpt lat="31.3903500" lon="34.6256600">
<ele>105.390007</ele>
<time>2024-11-26T13:34:02.291Z</time>
</trkpt>
<trkpt lat="31.3905600" lon="34.6256900">
<ele>106.520004</ele>
<time>2024-11-26T13:34:02.291Z</time>
</trkpt>
<trkpt lat="31.3907500" lon="34.6256600">
<ele>105.739998</ele>
<time>2024-11-26T13:34:02.291Z</time>
</trkpt>
<trkpt lat="31.3908700" lon="34.6255900">
<ele>105.360001</ele>
<time>2024-11-26T13:34:02.291Z</time>
</trkpt>
<trkpt lat="31.3911000" lon="34.6255200">
<ele>103.379997</ele>
<time>2024-11-26T13:34:02.291Z</time>
</trkpt>
<trkpt lat="31.3912400" lon="34.6254600">
<ele>103.219994</ele>
<time>2024-11-26T13:34:02.291Z</time>
</trkpt>
<trkpt lat="31.3914300" lon="34.6254300">
<ele>102.970001</ele>
<time>2024-11-26T13:34:02.291Z</time>
</trkpt>
<trkpt lat="31.3917300" lon="34.6250600">
<ele>104.170006</ele>
<time>2024-11-26T13:34:02.291Z</time>
</trkpt>
<trkpt lat="31.3918200" lon="34.6249300">
<ele>103.999992</ele>
<time>2024-11-26T13:34:02.291Z</time>
</trkpt>
<trkpt lat="31.3919000" lon="34.6246200">
<ele>103.880005</ele>
<time>2024-11-26T13:34:02.291Z</time>
</trkpt>
<trkpt lat="31.3920900" lon="34.6244900">
<ele>104.520004</ele>
<time>2024-11-26T13:34:02.291Z</time>
</trkpt>
<trkpt lat="31.3922400" lon="34.6244600">
<ele>105.139999</ele>
<time>2024-11-26T13:34:02.291Z</time>
</trkpt>
<trkpt lat="31.3923100" lon="34.6244100">
<ele>105.930000</ele>
<time>2024-11-26T13:34:02.291Z</time>
</trkpt>
<trkpt lat="31.3923500" lon="34.6242300">
<ele>107.530006</ele>
<time>2024-11-26T13:34:02.291Z</time>
</trkpt>
<trkpt lat="31.3923700" lon="34.6239600">
<ele>109.139999</ele>
<time>2024-11-26T13:34:02.291Z</time>
</trkpt>
<trkpt lat="31.3923500" lon="34.6236500">
<ele>108.669998</ele>
<time>2024-11-26T13:34:02.291Z</time>
</trkpt>
<trkpt lat="31.3923700" lon="34.6234000">
<ele>106.190002</ele>
<time>2024-11-26T13:34:02.291Z</time>
</trkpt>
<trkpt lat="31.3924900" lon="34.6233400">
<ele>105.110001</ele>
<time>2024-11-26T13:34:02.291Z</time>
</trkpt>
<trkpt lat="31.3929900" lon="34.6232400">
<ele>107.909996</ele>
<time>2024-11-26T13:34:02.291Z</time>
</trkpt>
<trkpt lat="31.3931800" lon="34.6231300">
<ele>109.309998</ele>
<time>2024-11-26T13:34:02.291Z</time>
</trkpt>
<trkpt lat="31.3933400" lon="34.6225800">
<ele>108.349998</ele>
<time>2024-11-26T13:34:02.291Z</time>
</trkpt>
<trkpt lat="31.3933500" lon="34.6223400">
<ele>107.500000</ele>
<time>2024-11-26T13:34:02.291Z</time>
</trkpt>
<trkpt lat="31.3935400" lon="34.6221300">
<ele>108.399994</ele>
<time>2024-11-26T13:34:02.291Z</time>
</trkpt>
<trkpt lat="31.3936000" lon="34.6219900">
<ele>111.779999</ele>
<time>2024-11-26T13:34:02.291Z</time>
</trkpt>
<trkpt lat="31.3936400" lon="34.6219100">
<ele>112.880005</ele>
<time>2024-11-26T13:34:02.291Z</time>
</trkpt>
<trkpt lat="31.3938200" lon="34.6217700">
<ele>112.369995</ele>
<time>2024-11-26T13:34:02.291Z</time>
</trkpt>
<trkpt lat="31.3941000" lon="34.6216500">
<ele>106.760002</ele>
<time>2024-11-26T13:34:02.291Z</time>
</trkpt>
<trkpt lat="31.3942800" lon="34.6216600">
<ele>106.250000</ele>
<time>2024-11-26T13:34:02.291Z</time>
</trkpt>
<trkpt lat="31.3944100" lon="34.6215700">
<ele>107.709999</ele>
<time>2024-11-26T13:34:02.291Z</time>
</trkpt>
<trkpt lat="31.3944800" lon="34.6213500">
<ele>108.119995</ele>
<time>2024-11-26T13:34:02.291Z</time>
</trkpt>
<trkpt lat="31.3946800" lon="34.6211200">
<ele>108.150002</ele>
<time>2024-11-26T13:34:02.291Z</time>
</trkpt>
<trkpt lat="31.3949400" lon="34.6211100">
<ele>110.349998</ele>
<time>2024-11-26T13:34:02.291Z</time>
</trkpt>
<trkpt lat="31.3952700" lon="34.6209800">
<ele>113.899994</ele>
<time>2024-11-26T13:34:02.291Z</time>
</trkpt>
<trkpt lat="31.3953200" lon="34.6209900">
<ele>114.629997</ele>
<time>2024-11-26T13:34:02.291Z</time>
</trkpt>
<trkpt lat="31.3953800" lon="34.6209800">
<ele>115.490005</ele>
<time>2024-11-26T13:34:02.291Z</time>
</trkpt>
<trkpt lat="31.3958400" lon="34.6207800">
<ele>119.989998</ele>
<time>2024-11-26T13:34:02.291Z</time>
</trkpt>
<trkpt lat="31.3968600" lon="34.6200900">
<ele>115.360001</ele>
<time>2024-11-26T13:34:02.291Z</time>
</trkpt>
<trkpt lat="31.3972000" lon="34.6203800">
<ele>114.889999</ele>
<time>2024-11-26T13:34:02.291Z</time>
</trkpt>
<trkpt lat="31.3971200" lon="34.6207100">
<ele>114.419998</ele>
<time>2024-11-26T13:34:02.291Z</time>
</trkpt>
<trkpt lat="31.3965600" lon="34.6209200">
<ele>116.360008</ele>
<time>2024-11-26T13:34:02.291Z</time>
</trkpt>
<trkpt lat="31.3962000" lon="34.6212800">
<ele>117.820000</ele>
<time>2024-11-26T13:34:02.291Z</time>
</trkpt>
<trkpt lat="31.3959500" lon="34.6213500">
<ele>120.739998</ele>
<time>2024-11-26T13:34:02.291Z</time>
</trkpt>
<trkpt lat="31.3956600" lon="34.6218000">
<ele>118.650002</ele>
<time>2024-11-26T13:34:02.291Z</time>
</trkpt>
<trkpt lat="31.3956600" lon="34.6219800">
<ele>118.340004</ele>
<time>2024-11-26T13:34:02.291Z</time>
</trkpt>
<trkpt lat="31.3957900" lon="34.6222200">
<ele>120.680000</ele>
<time>2024-11-26T13:34:02.291Z</time>
</trkpt>
<trkpt lat="31.3957500" lon="34.6224300">
<ele>122.570000</ele>
<time>2024-11-26T13:34:02.291Z</time>
</trkpt>
<trkpt lat="31.3953800" lon="34.6222000">
<ele>119.470001</ele>
<time>2024-11-26T13:34:02.291Z</time>
</trkpt>
<trkpt lat="31.3951300" lon="34.6221700">
<ele>118.559998</ele>
<time>2024-11-26T13:34:02.291Z</time>
</trkpt>
<trkpt lat="31.3950200" lon="34.6222800">
<ele>117.590004</ele>
<time>2024-11-26T13:34:02.291Z</time>
</trkpt>
<trkpt lat="31.3946800" lon="34.6225900">
<ele>112.300003</ele>
<time>2024-11-26T13:34:02.291Z</time>
</trkpt>
<trkpt lat="31.3945600" lon="34.6228500">
<ele>111.110001</ele>
<time>2024-11-26T13:34:02.291Z</time>
</trkpt>
<trkpt lat="31.3942900" lon="34.6229100">
<ele>111.180008</ele>
<time>2024-11-26T13:34:02.291Z</time>
</trkpt>
<trkpt lat="31.3938100" lon="34.6233200">
<ele>109.919998</ele>
<time>2024-11-26T13:34:02.291Z</time>
</trkpt>
<trkpt lat="31.3938100" lon="34.6233700">
<ele>110.300003</ele>
<time>2024-11-26T13:34:02.291Z</time>
</trkpt>
<trkpt lat="31.3937900" lon="34.6237200">
<ele>112.330002</ele>
<time>2024-11-26T13:34:02.291Z</time>
</trkpt>
<trkpt lat="31.3936600" lon="34.6243600">
<ele>114.199997</ele>
<time>2024-11-26T13:34:02.291Z</time>
</trkpt>
<trkpt lat="31.3936700" lon="34.6248000">
<ele>117.229996</ele>
<time>2024-11-26T13:34:02.291Z</time>
</trkpt>
<trkpt lat="31.3936600" lon="34.6252700">
<ele>116.070007</ele>
<time>2024-11-26T13:34:02.291Z</time>
</trkpt>
<trkpt lat="31.3937900" lon="34.6254700">
<ele>112.539993</ele>
<time>2024-11-26T13:34:02.291Z</time>
</trkpt>
<trkpt lat="31.3937900" lon="34.6256200">
<ele>110.070000</ele>
<time>2024-11-26T13:34:02.291Z</time>
</trkpt>
<trkpt lat="31.3936000" lon="34.6258600">
<ele>106.879997</ele>
<time>2024-11-26T13:34:02.291Z</time>
</trkpt>
<trkpt lat="31.3934300" lon="34.6261500">
<ele>106.300003</ele>
<time>2024-11-26T13:34:02.291Z</time>
</trkpt>
<trkpt lat="31.3930800" lon="34.6261000">
<ele>107.909996</ele>
<time>2024-11-26T13:34:02.291Z</time>
</trkpt>
<trkpt lat="31.3924100" lon="34.6264300">
<ele>109.629997</ele>
<time>2024-11-26T13:34:02.291Z</time>
</trkpt>
<trkpt lat="31.3923600" lon="34.6269200">
<ele>108.869995</ele>
<time>2024-11-26T13:34:02.291Z</time>
</trkpt>
<trkpt lat="31.3929200" lon="34.6273800">
<ele>113.340004</ele>
<time>2024-11-26T13:34:02.291Z</time>
</trkpt>
<trkpt lat="31.3929700" lon="34.6276600">
<ele>113.589996</ele>
<time>2024-11-26T13:34:02.291Z</time>
</trkpt>
<trkpt lat="31.3934700" lon="34.6277900">
<ele>110.070000</ele>
<time>2024-11-26T13:34:02.291Z</time>
</trkpt>
<trkpt lat="31.3938900" lon="34.6276000">
<ele>107.169998</ele>
<time>2024-11-26T13:34:02.291Z</time>
</trkpt>
<trkpt lat="31.3940000" lon="34.6277100">
<ele>109.930000</ele>
<time>2024-11-26T13:34:02.291Z</time>
</trkpt>
<trkpt lat="31.3939900" lon="34.6281400">
<ele>114.159996</ele>
<time>2024-11-26T13:34:02.291Z</time>
</trkpt>
<trkpt lat="31.3940200" lon="34.6284700">
<ele>116.419998</ele>
<time>2024-11-26T13:34:02.291Z</time>
</trkpt>
<trkpt lat="31.3949600" lon="34.6291500">
<ele>111.729996</ele>
<time>2024-11-26T13:34:02.291Z</time>
</trkpt>
<trkpt lat="31.3952200" lon="34.6291700">
<ele>112.019997</ele>
<time>2024-11-26T13:34:02.291Z</time>
</trkpt>
<trkpt lat="31.3954900" lon="34.6295400">
<ele>113.370003</ele>
<time>2024-11-26T13:34:02.291Z</time>
</trkpt>
<trkpt lat="31.3956200" lon="34.6295900">
<ele>113.500000</ele>
<time>2024-11-26T13:34:02.291Z</time>
</trkpt>
<trkpt lat="31.3956900" lon="34.6295800">
<ele>112.760002</ele>
<time>2024-11-26T13:34:02.291Z</time>
</trkpt>
<trkpt lat="31.3961000" lon="34.6294300">
<ele>104.430000</ele>
<time>2024-11-26T13:34:02.291Z</time>
</trkpt>
<trkpt lat="31.3964100" lon="34.6291100">
<ele>108.370003</ele>
<time>2024-11-26T13:34:02.291Z</time>
</trkpt>
<trkpt lat="31.3967200" lon="34.6289300">
<ele>107.980003</ele>
<time>2024-11-26T13:34:02.291Z</time>
</trkpt>
<trkpt lat="31.3967300" lon="34.6287300">
<ele>106.349998</ele>
<time>2024-11-26T13:34:02.291Z</time>
</trkpt>
<trkpt lat="31.3967800" lon="34.6285400">
<ele>105.620003</ele>
<time>2024-11-26T13:34:02.291Z</time>
</trkpt>
<trkpt lat="31.3971000" lon="34.6283700">
<ele>107.880005</ele>
<time>2024-11-26T13:34:02.291Z</time>
</trkpt>
<trkpt lat="31.3973000" lon="34.6279000">
<ele>108.320000</ele>
<time>2024-11-26T13:34:02.291Z</time>
</trkpt>
<trkpt lat="31.3974000" lon="34.6276000">
<ele>108.130005</ele>
<time>2024-11-26T13:34:02.291Z</time>
</trkpt>
<trkpt lat="31.3974900" lon="34.6272700">
<ele>109.629997</ele>
<time>2024-11-26T13:34:02.291Z</time>
</trkpt>
<trkpt lat="31.3975400" lon="34.6268900">
<ele>112.189995</ele>
<time>2024-11-26T13:34:02.291Z</time>
</trkpt>
<trkpt lat="31.3975600" lon="34.6266000">
<ele>113.030006</ele>
<time>2024-11-26T13:34:02.291Z</time>
</trkpt>
<trkpt lat="31.3976400" lon="34.6262600">
<ele>111.309998</ele>
<time>2024-11-26T13:34:02.291Z</time>
</trkpt>
<trkpt lat="31.3977600" lon="34.6258600">
<ele>109.189995</ele>
<time>2024-11-26T13:34:02.291Z</time>
</trkpt>
<trkpt lat="31.3979000" lon="34.6255300">
<ele>109.670006</ele>
<time>2024-11-26T13:34:02.291Z</time>
</trkpt>
<trkpt lat="31.3983600" lon="34.6250800">
<ele>116.840004</ele>
<time>2024-11-26T13:34:02.291Z</time>
</trkpt>
<trkpt lat="31.3986100" lon="34.6250000">
<ele>120.980003</ele>
<time>2024-11-26T13:34:02.291Z</time>
</trkpt>
<trkpt lat="31.3987000" lon="34.6250800">
<ele>118.110001</ele>
<time>2024-11-26T13:34:02.291Z</time>
</trkpt>
<trkpt lat="31.3985700" lon="34.6254300">
<ele>116.599998</ele>
<time>2024-11-26T13:34:02.291Z</time>
</trkpt>
<trkpt lat="31.3986000" lon="34.6257500">
<ele>113.609993</ele>
<time>2024-11-26T13:34:02.291Z</time>
</trkpt>
<trkpt lat="31.3984600" lon="34.6260700">
<ele>111.380005</ele>
<time>2024-11-26T13:34:02.291Z</time>
</trkpt>
<trkpt lat="31.3984400" lon="34.6264700">
<ele>112.000000</ele>
<time>2024-11-26T13:34:02.291Z</time>
</trkpt>
<trkpt lat="31.3982900" lon="34.6268000">
<ele>111.200005</ele>
<time>2024-11-26T13:34:02.291Z</time>
</trkpt>
<trkpt lat="31.3982700" lon="34.6270200">
<ele>110.349998</ele>
<time>2024-11-26T13:34:02.291Z</time>
</trkpt>
<trkpt lat="31.3981600" lon="34.6274200">
<ele>107.760002</ele>
<time>2024-11-26T13:34:02.291Z</time>
</trkpt>
<trkpt lat="31.3980800" lon="34.6275800">
<ele>107.000000</ele>
<time>2024-11-26T13:34:02.291Z</time>
</trkpt>
<trkpt lat="31.3980700" lon="34.6276800">
<ele>107.000000</ele>
<time>2024-11-26T13:34:02.291Z</time>
</trkpt>
<trkpt lat="31.3981700" lon="34.6279100">
<ele>104.119995</ele>
<time>2024-11-26T13:34:02.291Z</time>
</trkpt>
<trkpt lat="31.3984600" lon="34.6280300">
<ele>99.779999</ele>
<time>2024-11-26T13:34:02.291Z</time>
</trkpt>
<trkpt lat="31.3984900" lon="34.6281600">
<ele>99.879997</ele>
<time>2024-11-26T13:34:02.291Z</time>
</trkpt>
<trkpt lat="31.3984600" lon="34.6282700">
<ele>100.459999</ele>
<time>2024-11-26T13:34:02.291Z</time>
</trkpt>
<trkpt lat="31.3980600" lon="34.6283900">
<ele>103.949997</ele>
<time>2024-11-26T13:34:02.291Z</time>
</trkpt>
<trkpt lat="31.3974300" lon="34.6286900">
<ele>107.959999</ele>
<time>2024-11-26T13:34:02.291Z</time>
</trkpt>
<trkpt lat="31.3974100" lon="34.6288100">
<ele>109.009995</ele>
<time>2024-11-26T13:34:02.291Z</time>
</trkpt>
<trkpt lat="31.3973700" lon="34.6292600">
<ele>110.510002</ele>
<time>2024-11-26T13:34:02.291Z</time>
</trkpt>
<trkpt lat="31.3972900" lon="34.6300300">
<ele>110.489998</ele>
<time>2024-11-26T13:34:02.291Z</time>
</trkpt>
<trkpt lat="31.3973500" lon="34.6305000">
<ele>112.820000</ele>
<time>2024-11-26T13:34:02.291Z</time>
</trkpt>
<trkpt lat="31.3975300" lon="34.6307400">
<ele>114.479996</ele>
<time>2024-11-26T13:34:02.291Z</time>
</trkpt>
<trkpt lat="31.3978800" lon="34.6307900">
<ele>112.489998</ele>
<time>2024-11-26T13:34:02.291Z</time>
</trkpt>
<trkpt lat="31.3987300" lon="34.6307800">
<ele>107.049995</ele>
<time>2024-11-26T13:34:02.291Z</time>
</trkpt>
<trkpt lat="31.3989500" lon="34.6307000">
<ele>105.529999</ele>
<time>2024-11-26T13:34:02.291Z</time>
</trkpt>
<trkpt lat="31.3992000" lon="34.6307400">
<ele>102.279999</ele>
<time>2024-11-26T13:34:02.291Z</time>
</trkpt>
<trkpt lat="31.3996500" lon="34.6306100">
<ele>106.059998</ele>
<time>2024-11-26T13:34:02.291Z</time>
</trkpt>
<trkpt lat="31.3998900" lon="34.6303900">
<ele>106.400002</ele>
<time>2024-11-26T13:34:02.291Z</time>
</trkpt>
<trkpt lat="31.4003000" lon="34.6302600">
<ele>111.099998</ele>
<time>2024-11-26T13:34:02.291Z</time>
</trkpt>
<trkpt lat="31.4004200" lon="34.6302800">
<ele>110.510002</ele>
<time>2024-11-26T13:34:02.291Z</time>
</trkpt>
<trkpt lat="31.4004200" lon="34.6305400">
<ele>113.389999</ele>
<time>2024-11-26T13:34:02.291Z</time>
</trkpt>
<trkpt lat="31.4004600" lon="34.6306700">
<ele>115.389999</ele>
<time>2024-11-26T13:34:02.291Z</time>
</trkpt>
<trkpt lat="31.4004900" lon="34.6308800">
<ele>117.330002</ele>
<time>2024-11-26T13:34:02.291Z</time>
</trkpt>
<trkpt lat="31.4004700" lon="34.6310700">
<ele>117.340004</ele>
<time>2024-11-26T13:34:02.291Z</time>
</trkpt>
<trkpt lat="31.4005400" lon="34.6311400">
<ele>117.689995</ele>
<time>2024-11-26T13:34:02.291Z</time>
</trkpt>
<trkpt lat="31.4005800" lon="34.6313600">
<ele>116.110001</ele>
<time>2024-11-26T13:34:02.291Z</time>
</trkpt>
<trkpt lat="31.4004600" lon="34.6314800">
<ele>116.430000</ele>
<time>2024-11-26T13:34:02.291Z</time>
</trkpt>
<trkpt lat="31.4003400" lon="34.6314700">
<ele>116.129997</ele>
<time>2024-11-26T13:34:02.291Z</time>
</trkpt>
<trkpt lat="31.4000400" lon="34.6312900">
<ele>115.389999</ele>
<time>2024-11-26T13:34:02.291Z</time>
</trkpt>
<trkpt lat="31.3996400" lon="34.6311600">
<ele>115.620003</ele>
<time>2024-11-26T13:34:02.291Z</time>
</trkpt>
<trkpt lat="31.3993400" lon="34.6311500">
<ele>114.130005</ele>
<time>2024-11-26T13:34:02.291Z</time>
</trkpt>
<trkpt lat="31.3990000" lon="34.6312400">
<ele>115.059998</ele>
<time>2024-11-26T13:34:02.291Z</time>
</trkpt>
<trkpt lat="31.3988900" lon="34.6314400">
<ele>115.650002</ele>
<time>2024-11-26T13:34:02.291Z</time>
</trkpt>
<trkpt lat="31.3988800" lon="34.6315900">
<ele>114.479996</ele>
<time>2024-11-26T13:34:02.291Z</time>
</trkpt>
<trkpt lat="31.3985400" lon="34.6317600">
<ele>112.849998</ele>
<time>2024-11-26T13:34:02.291Z</time>
</trkpt>
<trkpt lat="31.3984500" lon="34.6317400">
<ele>113.889999</ele>
<time>2024-11-26T13:34:02.291Z</time>
</trkpt>
<trkpt lat="31.3983500" lon="34.6316200">
<ele>114.359993</ele>
<time>2024-11-26T13:34:02.291Z</time>
</trkpt>
<trkpt lat="31.3982300" lon="34.6317400">
<ele>117.220001</ele>
<time>2024-11-26T13:34:02.291Z</time>
</trkpt>
<trkpt lat="31.3981000" lon="34.6316200">
<ele>117.849998</ele>
<time>2024-11-26T13:34:02.291Z</time>
</trkpt>
<trkpt lat="31.3980000" lon="34.6313800">
<ele>112.029999</ele>
<time>2024-11-26T13:34:02.291Z</time>
</trkpt>
<trkpt lat="31.3979300" lon="34.6313500">
<ele>113.340004</ele>
<time>2024-11-26T13:34:02.291Z</time>
</trkpt>
<trkpt lat="31.3976900" lon="34.6312100">
<ele>115.589996</ele>
<time>2024-11-26T13:34:02.291Z</time>
</trkpt>
<trkpt lat="31.3973000" lon="34.6311300">
<ele>112.740005</ele>
<time>2024-11-26T13:34:02.291Z</time>
</trkpt>
<trkpt lat="31.3971200" lon="34.6309000">
<ele>114.540001</ele>
<time>2024-11-26T13:34:02.291Z</time>
</trkpt>
<trkpt lat="31.3967800" lon="34.6307900">
<ele>114.629997</ele>
<time>2024-11-26T13:34:02.291Z</time>
</trkpt>
<trkpt lat="31.3964500" lon="34.6308700">
<ele>115.150002</ele>
<time>2024-11-26T13:34:02.291Z</time>
</trkpt>
<trkpt lat="31.3963000" lon="34.6308900">
<ele>114.419998</ele>
<time>2024-11-26T13:34:02.291Z</time>
</trkpt>
<trkpt lat="31.3960900" lon="34.6309900">
<ele>112.440002</ele>
<time>2024-11-26T13:34:02.291Z</time>
</trkpt>
<trkpt lat="31.3960900" lon="34.6312100">
<ele>112.330002</ele>
<time>2024-11-26T13:34:02.291Z</time>
</trkpt>
<trkpt lat="31.3963300" lon="34.6317400">
<ele>114.100006</ele>
<time>2024-11-26T13:34:02.291Z</time>
</trkpt>
<trkpt lat="31.3967600" lon="34.6319000">
<ele>112.790001</ele>
<time>2024-11-26T13:34:02.291Z</time>
</trkpt>
<trkpt lat="31.3970100" lon="34.6317800">
<ele>114.939995</ele>
<time>2024-11-26T13:34:02.291Z</time>
</trkpt>
<trkpt lat="31.3973600" lon="34.6320800">
<ele>116.760002</ele>
<time>2024-11-26T13:34:02.291Z</time>
</trkpt>
<trkpt lat="31.3975700" lon="34.6325600">
<ele>117.480003</ele>
<time>2024-11-26T13:34:02.291Z</time>
</trkpt>
<trkpt lat="31.3979900" lon="34.6327800">
<ele>120.309998</ele>
<time>2024-11-26T13:34:02.291Z</time>
</trkpt>
<trkpt lat="31.3980200" lon="34.6330200">
<ele>116.320000</ele>
<time>2024-11-26T13:34:02.291Z</time>
</trkpt>
<trkpt lat="31.3981200" lon="34.6331000">
<ele>116.000000</ele>
<time>2024-11-26T13:34:02.291Z</time>
</trkpt>
<trkpt lat="31.3983100" lon="34.6330600">
<ele>116.870003</ele>
<time>2024-11-26T13:34:02.291Z</time>
</trkpt>
<trkpt lat="31.3984200" lon="34.6330800">
<ele>114.120003</ele>
<time>2024-11-26T13:34:02.291Z</time>
</trkpt>
<trkpt lat="31.3985000" lon="34.6332800">
<ele>112.570000</ele>
<time>2024-11-26T13:34:02.291Z</time>
</trkpt>
<trkpt lat="31.3984700" lon="34.6334300">
<ele>113.190002</ele>
<time>2024-11-26T13:34:02.291Z</time>
</trkpt>
<trkpt lat="31.3983900" lon="34.6335100">
<ele>114.100006</ele>
<time>2024-11-26T13:34:02.291Z</time>
</trkpt>
<trkpt lat="31.3983800" lon="34.6336300">
<ele>114.560005</ele>
<time>2024-11-26T13:34:02.291Z</time>
</trkpt>
<trkpt lat="31.3983900" lon="34.6339000">
<ele>115.409996</ele>
<time>2024-11-26T13:34:02.291Z</time>
</trkpt>
<trkpt lat="31.3983600" lon="34.6340400">
<ele>115.869995</ele>
<time>2024-11-26T13:34:02.291Z</time>
</trkpt>
<trkpt lat="31.3983600" lon="34.6341600">
<ele>115.989998</ele>
<time>2024-11-26T13:34:02.291Z</time>
</trkpt>
<trkpt lat="31.3983700" lon="34.6344000">
<ele>114.540001</ele>
<time>2024-11-26T13:34:02.291Z</time>
</trkpt>
<trkpt lat="31.3984700" lon="34.6346500">
<ele>114.610001</ele>
<time>2024-11-26T13:34:02.291Z</time>
</trkpt>
<trkpt lat="31.3987000" lon="34.6346600">
<ele>116.070007</ele>
<time>2024-11-26T13:34:02.291Z</time>
</trkpt>
<trkpt lat="31.3988700" lon="34.6347000">
<ele>116.070007</ele>
<time>2024-11-26T13:34:02.291Z</time>
</trkpt>
<trkpt lat="31.3988500" lon="34.6347600">
<ele>115.790001</ele>
<time>2024-11-26T13:34:02.291Z</time>
</trkpt>
<trkpt lat="31.3986800" lon="34.6348100">
<ele>116.080002</ele>
<time>2024-11-26T13:34:02.291Z</time>
</trkpt>
<trkpt lat="31.3986300" lon="34.6349900">
<ele>116.769997</ele>
<time>2024-11-26T13:34:02.291Z</time>
</trkpt>
<trkpt lat="31.3986900" lon="34.6352400">
<ele>116.769997</ele>
<time>2024-11-26T13:34:02.291Z</time>
</trkpt>
<trkpt lat="31.3989300" lon="34.6353800">
<ele>112.560005</ele>
<time>2024-11-26T13:34:02.291Z</time>
</trkpt>
<trkpt lat="31.3992200" lon="34.6355500">
<ele>110.779999</ele>
<time>2024-11-26T13:34:02.291Z</time>
</trkpt>
<trkpt lat="31.3992600" lon="34.6357200">
<ele>112.720001</ele>
<time>2024-11-26T13:34:02.291Z</time>
</trkpt>
<trkpt lat="31.3994600" lon="34.6357200">
<ele>114.790001</ele>
<time>2024-11-26T13:34:02.291Z</time>
</trkpt>
<trkpt lat="31.3996100" lon="34.6355600">
<ele>115.809998</ele>
<time>2024-11-26T13:34:02.291Z</time>
</trkpt>
<trkpt lat="31.3997000" lon="34.6355300">
<ele>116.489998</ele>
<time>2024-11-26T13:34:02.291Z</time>
</trkpt>
<trkpt lat="31.3997100" lon="34.6355800">
<ele>117.040001</ele>
<time>2024-11-26T13:34:02.291Z</time>
</trkpt>
<trkpt lat="31.3997100" lon="34.6357200">
<ele>118.029999</ele>
<time>2024-11-26T13:34:02.291Z</time>
</trkpt>
<trkpt lat="31.3996800" lon="34.6358600">
<ele>118.019997</ele>
<time>2024-11-26T13:34:02.291Z</time>
</trkpt>
<trkpt lat="31.3997100" lon="34.6361100">
<ele>114.880005</ele>
<time>2024-11-26T13:34:02.291Z</time>
</trkpt>
<trkpt lat="31.3997800" lon="34.6363100">
<ele>117.500000</ele>
<time>2024-11-26T13:34:02.291Z</time>
</trkpt>
<trkpt lat="31.3997600" lon="34.6366600">
<ele>114.100006</ele>
<time>2024-11-26T13:34:02.291Z</time>
</trkpt>
<trkpt lat="31.3997900" lon="34.6367100">
<ele>114.159996</ele>
<time>2024-11-26T13:34:02.291Z</time>
</trkpt>
<trkpt lat="31.3999900" lon="34.6370700">
<ele>115.020004</ele>
<time>2024-11-26T13:34:02.291Z</time>
</trkpt>
<trkpt lat="31.4004100" lon="34.6372000">
<ele>111.250000</ele>
<time>2024-11-26T13:34:02.291Z</time>
</trkpt>
<trkpt lat="31.4012000" lon="34.6372500">
<ele>122.029999</ele>
<time>2024-11-26T13:34:02.291Z</time>
</trkpt>
<trkpt lat="31.4017300" lon="34.6375100">
<ele>123.720001</ele>
<time>2024-11-26T13:34:02.291Z</time>
</trkpt>
<trkpt lat="31.4021200" lon="34.6379600">
<ele>115.719994</ele>
<time>2024-11-26T13:34:02.291Z</time>
</trkpt>
<trkpt lat="31.4022600" lon="34.6380700">
<ele>113.070000</ele>
<time>2024-11-26T13:34:02.291Z</time>
</trkpt>
<trkpt lat="31.4026000" lon="34.6380700">
<ele>114.219994</ele>
<time>2024-11-26T13:34:02.291Z</time>
</trkpt>
<trkpt lat="31.4028900" lon="34.6380200">
<ele>115.600006</ele>
<time>2024-11-26T13:34:02.291Z</time>
</trkpt>
<trkpt lat="31.4030300" lon="34.6380600">
<ele>115.110001</ele>
<time>2024-11-26T13:34:02.291Z</time>
</trkpt>
<trkpt lat="31.4030600" lon="34.6381300">
<ele>115.289993</ele>
<time>2024-11-26T13:34:02.291Z</time>
</trkpt>
<trkpt lat="31.4030800" lon="34.6382400">
<ele>115.809998</ele>
<time>2024-11-26T13:34:02.291Z</time>
</trkpt>
<trkpt lat="31.4030600" lon="34.6384700">
<ele>118.479996</ele>
<time>2024-11-26T13:34:02.291Z</time>
</trkpt>
<trkpt lat="31.4029500" lon="34.6386500">
<ele>122.709999</ele>
<time>2024-11-26T13:34:02.291Z</time>
</trkpt>
<trkpt lat="31.4026200" lon="34.6388200">
<ele>130.169998</ele>
<time>2024-11-26T13:34:02.291Z</time>
</trkpt>
<trkpt lat="31.4023400" lon="34.6388600">
<ele>126.010002</ele>
<time>2024-11-26T13:34:02.291Z</time>
</trkpt>
<trkpt lat="31.4020900" lon="34.6388800">
<ele>122.889999</ele>
<time>2024-11-26T13:34:02.291Z</time>
</trkpt>
<trkpt lat="31.4018600" lon="34.6388800">
<ele>121.940002</ele>
<time>2024-11-26T13:34:02.291Z</time>
</trkpt>
<trkpt lat="31.4016500" lon="34.6388400">
<ele>118.929993</ele>
<time>2024-11-26T13:34:02.291Z</time>
</trkpt>
<trkpt lat="31.4014900" lon="34.6388600">
<ele>115.460007</ele>
<time>2024-11-26T13:34:02.291Z</time>
</trkpt>
<trkpt lat="31.4014200" lon="34.6388700">
<ele>113.810005</ele>
<time>2024-11-26T13:34:02.291Z</time>
</trkpt>
<trkpt lat="31.4013900" lon="34.6387400">
<ele>113.550003</ele>
<time>2024-11-26T13:34:02.291Z</time>
</trkpt>
<trkpt lat="31.4014300" lon="34.6385200">
<ele>114.300003</ele>
<time>2024-11-26T13:34:02.291Z</time>
</trkpt>
<trkpt lat="31.4013700" lon="34.6381000">
<ele>117.910004</ele>
<time>2024-11-26T13:34:02.291Z</time>
</trkpt>
<trkpt lat="31.4011500" lon="34.6380000">
<ele>115.180000</ele>
<time>2024-11-26T13:34:02.291Z</time>
</trkpt>
<trkpt lat="31.4010800" lon="34.6380000">
<ele>113.840004</ele>
<time>2024-11-26T13:34:02.291Z</time>
</trkpt>
<trkpt lat="31.4009200" lon="34.6379900">
<ele>111.030006</ele>
<time>2024-11-26T13:34:02.291Z</time>
</trkpt>
<trkpt lat="31.4006500" lon="34.6381000">
<ele>110.480003</ele>
<time>2024-11-26T13:34:02.291Z</time>
</trkpt>
<trkpt lat="31.4004300" lon="34.6381100">
<ele>108.750008</ele>
<time>2024-11-26T13:34:02.291Z</time>
</trkpt>
<trkpt lat="31.4002000" lon="34.6381700">
<ele>108.050003</ele>
<time>2024-11-26T13:34:02.291Z</time>
</trkpt>
<trkpt lat="31.4002000" lon="34.6381900">
<ele>108.340004</ele>
<time>2024-11-26T13:34:02.291Z</time>
</trkpt>
<trkpt lat="31.4002000" lon="34.6382000">
<ele>108.480003</ele>
<time>2024-11-26T13:34:02.291Z</time>
</trkpt>
<trkpt lat="31.3999700" lon="34.6382400">
<ele>113.050003</ele>
<time>2024-11-26T13:34:02.291Z</time>
</trkpt>
<trkpt lat="31.3998300" lon="34.6384300">
<ele>116.580002</ele>
<time>2024-11-26T13:34:02.291Z</time>
</trkpt>
<trkpt lat="31.3997300" lon="34.6386000">
<ele>117.910004</ele>
<time>2024-11-26T13:34:02.291Z</time>
</trkpt>
<trkpt lat="31.3995700" lon="34.6388400">
<ele>120.290001</ele>
<time>2024-11-26T13:34:02.291Z</time>
</trkpt>
<trkpt lat="31.3995300" lon="34.6390100">
<ele>120.559998</ele>
<time>2024-11-26T13:34:02.291Z</time>
</trkpt>
<trkpt lat="31.3994600" lon="34.6391100">
<ele>120.899994</ele>
<time>2024-11-26T13:34:02.291Z</time>
</trkpt>
<trkpt lat="31.3992500" lon="34.6391600">
<ele>118.830002</ele>
<time>2024-11-26T13:34:02.291Z</time>
</trkpt>
<trkpt lat="31.3991000" lon="34.6390000">
<ele>115.460007</ele>
<time>2024-11-26T13:34:02.291Z</time>
</trkpt>
<trkpt lat="31.3990300" lon="34.6387900">
<ele>114.489998</ele>
<time>2024-11-26T13:34:02.291Z</time>
</trkpt>
<trkpt lat="31.3990300" lon="34.6388000">
<ele>114.489998</ele>
<time>2024-11-26T13:34:02.291Z</time>
</trkpt>
<trkpt lat="31.3990900" lon="34.6385700">
<ele>114.339996</ele>
<time>2024-11-26T13:34:02.291Z</time>
</trkpt>
<trkpt lat="31.3991100" lon="34.6379700">
<ele>114.610001</ele>
<time>2024-11-26T13:34:02.291Z</time>
</trkpt>
<trkpt lat="31.3991200" lon="34.6376500">
<ele>114.250000</ele>
<time>2024-11-26T13:34:02.291Z</time>
</trkpt>
<trkpt lat="31.3991200" lon="34.6373800">
<ele>115.200005</ele>
<time>2024-11-26T13:34:02.291Z</time>
</trkpt>
<trkpt lat="31.3990800" lon="34.6371100">
<ele>117.430008</ele>
<time>2024-11-26T13:34:02.291Z</time>
</trkpt>
<trkpt lat="31.3990600" lon="34.6369400">
<ele>118.779999</ele>
<time>2024-11-26T13:34:02.291Z</time>
</trkpt>
<trkpt lat="31.3990600" lon="34.6367800">
<ele>119.270004</ele>
<time>2024-11-26T13:34:02.291Z</time>
</trkpt>
<trkpt lat="31.3990600" lon="34.6365000">
<ele>119.019997</ele>
<time>2024-11-26T13:34:02.291Z</time>
</trkpt>
<trkpt lat="31.3990100" lon="34.6364100">
<ele>118.510002</ele>
<time>2024-11-26T13:34:02.291Z</time>
</trkpt>
<trkpt lat="31.3988900" lon="34.6364000">
<ele>118.040001</ele>
<time>2024-11-26T13:34:02.291Z</time>
</trkpt>
<trkpt lat="31.3985000" lon="34.6358700">
<ele>120.559998</ele>
<time>2024-11-26T13:34:02.291Z</time>
</trkpt>
<trkpt lat="31.3983400" lon="34.6357700">
<ele>124.830002</ele>
<time>2024-11-26T13:34:02.291Z</time>
</trkpt>
<trkpt lat="31.3982300" lon="34.6357700">
<ele>122.570000</ele>
<time>2024-11-26T13:34:02.291Z</time>
</trkpt>
<trkpt lat="31.3981100" lon="34.6357500">
<ele>119.849998</ele>
<time>2024-11-26T13:34:02.291Z</time>
</trkpt>
<trkpt lat="31.3979400" lon="34.6356800">
<ele>115.500000</ele>
<time>2024-11-26T13:34:02.291Z</time>
</trkpt>
<trkpt lat="31.3979200" lon="34.6355700">
<ele>115.089996</ele>
<time>2024-11-26T13:34:02.291Z</time>
</trkpt>
<trkpt lat="31.3979700" lon="34.6354400">
<ele>117.269997</ele>
<time>2024-11-26T13:34:02.291Z</time>
</trkpt>
<trkpt lat="31.3979300" lon="34.6353200">
<ele>116.930000</ele>
<time>2024-11-26T13:34:02.291Z</time>
</trkpt>
<trkpt lat="31.3978300" lon="34.6352000">
<ele>115.940002</ele>
<time>2024-11-26T13:34:02.291Z</time>
</trkpt>
<trkpt lat="31.3978000" lon="34.6350200">
<ele>116.659996</ele>
<time>2024-11-26T13:34:02.291Z</time>
</trkpt>
<trkpt lat="31.3978100" lon="34.6347000">
<ele>114.150002</ele>
<time>2024-11-26T13:34:02.291Z</time>
</trkpt>
<trkpt lat="31.3977600" lon="34.6344100">
<ele>111.030006</ele>
<time>2024-11-26T13:34:02.291Z</time>
</trkpt>
<trkpt lat="31.3976700" lon="34.6342700">
<ele>111.879997</ele>
<time>2024-11-26T13:34:02.291Z</time>
</trkpt>
<trkpt lat="31.3975100" lon="34.6341200">
<ele>114.990005</ele>
<time>2024-11-26T13:34:02.291Z</time>
</trkpt>
<trkpt lat="31.3972600" lon="34.6339200">
<ele>116.659996</ele>
<time>2024-11-26T13:34:02.291Z</time>
</trkpt>
<trkpt lat="31.3970800" lon="34.6334400">
<ele>117.169998</ele>
<time>2024-11-26T13:34:02.291Z</time>
</trkpt>
<trkpt lat="31.3969800" lon="34.6328700">
<ele>116.129997</ele>
<time>2024-11-26T13:34:02.291Z</time>
</trkpt>
<trkpt lat="31.3967900" lon="34.6325800">
<ele>112.590004</ele>
<time>2024-11-26T13:34:02.291Z</time>
</trkpt>
<trkpt lat="31.3963200" lon="34.6320000">
<ele>116.649994</ele>
<time>2024-11-26T13:34:02.291Z</time>
</trkpt>
<trkpt lat="31.3961600" lon="34.6319700">
<ele>116.889999</ele>
<time>2024-11-26T13:34:02.291Z</time>
</trkpt>
<trkpt lat="31.3960900" lon="34.6319800">
<ele>116.649994</ele>
<time>2024-11-26T13:34:02.291Z</time>
</trkpt>
<trkpt lat="31.3960600" lon="34.6320000">
<ele>116.279999</ele>
<time>2024-11-26T13:34:02.291Z</time>
</trkpt>
<trkpt lat="31.3960000" lon="34.6320700">
<ele>115.529999</ele>
<time>2024-11-26T13:34:02.291Z</time>
</trkpt>
<trkpt lat="31.3958200" lon="34.6322000">
<ele>113.849998</ele>
<time>2024-11-26T13:34:02.291Z</time>
</trkpt>
<trkpt lat="31.3956100" lon="34.6319200">
<ele>109.750000</ele>
<time>2024-11-26T13:34:02.291Z</time>
</trkpt>
<trkpt lat="31.3957400" lon="34.6317800">
<ele>111.330002</ele>
<time>2024-11-26T13:34:02.291Z</time>
</trkpt>
<trkpt lat="31.3957100" lon="34.6313700">
<ele>109.489998</ele>
<time>2024-11-26T13:34:02.291Z</time>
</trkpt>
<trkpt lat="31.3953800" lon="34.6308800">
<ele>111.709999</ele>
<time>2024-11-26T13:34:02.291Z</time>
</trkpt>
<trkpt lat="31.3947100" lon="34.6303800">
<ele>109.739998</ele>
<time>2024-11-26T13:34:02.291Z</time>
</trkpt>
<trkpt lat="31.3939400" lon="34.6298200">
<ele>109.019997</ele>
<time>2024-11-26T13:34:02.291Z</time>
</trkpt>
<trkpt lat="31.3938400" lon="34.6295600">
<ele>106.330002</ele>
<time>2024-11-26T13:34:02.291Z</time>
</trkpt>
<trkpt lat="31.3933000" lon="34.6291000">
<ele>107.860001</ele>
<time>2024-11-26T13:34:02.291Z</time>
</trkpt>
<trkpt lat="31.3928300" lon="34.6286900">
<ele>106.059998</ele>
<time>2024-11-26T13:34:02.291Z</time>
</trkpt>
<trkpt lat="31.3924200" lon="34.6280900">
<ele>105.049995</ele>
<time>2024-11-26T13:34:02.291Z</time>
</trkpt>
<trkpt lat="31.3920600" lon="34.6275900">
<ele>105.180000</ele>
<time>2024-11-26T13:34:02.291Z</time>
</trkpt>
<trkpt lat="31.3916800" lon="34.6272600">
<ele>102.520004</ele>
<time>2024-11-26T13:34:02.291Z</time>
</trkpt>
<trkpt lat="31.3913100" lon="34.6269100">
<ele>107.230003</ele>
<time>2024-11-26T13:34:02.291Z</time>
</trkpt>
<trkpt lat="31.3907000" lon="34.6267700">
<ele>105.199997</ele>
<time>2024-11-26T13:34:02.291Z</time>
</trkpt>
<trkpt lat="31.3901100" lon="34.6266300">
<ele>100.309998</ele>
<time>2024-11-26T13:34:02.291Z</time>
</trkpt>
<trkpt lat="31.3894000" lon="34.6264800">
<ele>102.510002</ele>
<time>2024-11-26T13:34:02.291Z</time>
</trkpt>
<trkpt lat="31.3892600" lon="34.6265700">
<ele>101.680000</ele>
<time>2024-11-26T13:34:02.291Z</time>
</trkpt>
<trkpt lat="31.3889400" lon="34.6265000">
<ele>104.209999</ele>
<time>2024-11-26T13:34:02.291Z</time>
</trkpt>
<trkpt lat="31.3888400" lon="34.6263300">
<ele>106.770004</ele>
<time>2024-11-26T13:34:02.291Z</time>
</trkpt>
<trkpt lat="31.3886500" lon="34.6260600">
<ele>108.820000</ele>
<time>2024-11-26T13:34:02.291Z</time>
</trkpt>
<trkpt lat="31.3885800" lon="34.6256400">
<ele>106.430000</ele>
<time>2024-11-26T13:34:02.291Z</time>
</trkpt>
<trkpt lat="31.3884200" lon="34.6251000">
<ele>104.309998</ele>
<time>2024-11-26T13:34:02.291Z</time>
</trkpt>
<trkpt lat="31.3882500" lon="34.6247400">
<ele>103.790001</ele>
<time>2024-11-26T13:34:02.291Z</time>
</trkpt>
<trkpt lat="31.3882000" lon="34.6241700">
<ele>102.099998</ele>
<time>2024-11-26T13:34:02.291Z</time>
</trkpt>
<trkpt lat="31.3881900" lon="34.6238500">
<ele>99.980003</ele>
<time>2024-11-26T13:34:02.291Z</time>
</trkpt>
<trkpt lat="31.3881700" lon="34.6236500">
<ele>100.129997</ele>
<time>2024-11-26T13:34:02.291Z</time>
</trkpt>
<trkpt lat="31.3880900" lon="34.6234700">
<ele>100.690002</ele>
<time>2024-11-26T13:34:02.291Z</time>
</trkpt>
<trkpt lat="31.3879900" lon="34.6233200">
<ele>101.130005</ele>
<time>2024-11-26T13:34:02.291Z</time>
</trkpt>
<trkpt lat="31.3877400" lon="34.6230900">
<ele>102.269997</ele>
<time>2024-11-26T13:34:02.291Z</time>
</trkpt>
<trkpt lat="31.3877300" lon="34.6227200">
<ele>98.440002</ele>
<time>2024-11-26T13:34:02.291Z</time>
</trkpt>
<trkpt lat="31.3876400" lon="34.6226400">
<ele>97.759995</ele>
<time>2024-11-26T13:34:02.291Z</time>
</trkpt>
<trkpt lat="31.3875400" lon="34.6226900">
<ele>99.719994</ele>
<time>2024-11-26T13:34:02.291Z</time>
</trkpt>
<trkpt lat="31.3872600" lon="34.6226500">
<ele>99.970001</ele>
<time>2024-11-26T13:34:02.291Z</time>
</trkpt>
<trkpt lat="31.3868900" lon="34.6227000">
<ele>103.799995</ele>
<time>2024-11-26T13:34:02.291Z</time>
</trkpt>
<trkpt lat="31.3868000" lon="34.6227600">
<ele>103.580002</ele>
<time>2024-11-26T13:34:02.291Z</time>
</trkpt>
<trkpt lat="31.3867800" lon="34.6227900">
<ele>103.430000</ele>
<time>2024-11-26T13:34:02.291Z</time>
</trkpt>
<trkpt lat="31.3866500" lon="34.6229300">
<ele>102.990005</ele>
<time>2024-11-26T13:34:02.291Z</time>
</trkpt>
<trkpt lat="31.3863400" lon="34.6233100">
<ele>102.739998</ele>
<time>2024-11-26T13:34:02.291Z</time>
</trkpt>
<trkpt lat="31.3861600" lon="34.6233200">
<ele>102.129997</ele>
<time>2024-11-26T13:34:02.291Z</time>
</trkpt>
<trkpt lat="31.3859600" lon="34.6229500">
<ele>104.239998</ele>
<time>2024-11-26T13:34:02.291Z</time>
</trkpt>
<trkpt lat="31.3859300" lon="34.6225500">
<ele>107.189995</ele>
<time>2024-11-26T13:34:02.291Z</time>
</trkpt>
<trkpt lat="31.3858800" lon="34.6221300">
<ele>103.180000</ele>
<time>2024-11-26T13:34:02.291Z</time>
</trkpt>
<trkpt lat="31.3857500" lon="34.6219500">
<ele>99.330002</ele>
<time>2024-11-26T13:34:02.291Z</time>
</trkpt>
<trkpt lat="31.3857800" lon="34.6216600">
<ele>100.919998</ele>
<time>2024-11-26T13:34:02.291Z</time>
</trkpt>
<trkpt lat="31.3856400" lon="34.6216400">
<ele>100.720001</ele>
<time>2024-11-26T13:34:02.291Z</time>
</trkpt>
<trkpt lat="31.3855200" lon="34.6216400">
<ele>100.230003</ele>
<time>2024-11-26T13:34:02.291Z</time>
</trkpt>
<trkpt lat="31.3852900" lon="34.6216500">
<ele>99.170006</ele>
<time>2024-11-26T13:34:02.291Z</time>
</trkpt>
<trkpt lat="31.3850400" lon="34.6214900">
<ele>101.130005</ele>
<time>2024-11-26T13:34:02.291Z</time>
</trkpt>
<trkpt lat="31.3848300" lon="34.6213200">
<ele>99.549995</ele>
<time>2024-11-26T13:34:02.291Z</time>
</trkpt>
<trkpt lat="31.3846800" lon="34.6210200">
<ele>102.009995</ele>
<time>2024-11-26T13:34:02.291Z</time>
</trkpt>
<trkpt lat="31.3845600" lon="34.6208600">
<ele>102.449997</ele>
<time>2024-11-26T13:34:02.291Z</time>
</trkpt>
<trkpt lat="31.3845800" lon="34.6207200">
<ele>103.360001</ele>
<time>2024-11-26T13:34:02.291Z</time>
</trkpt>
<trkpt lat="31.3845800" lon="34.6206900">
<ele>103.470001</ele>
<time>2024-11-26T13:34:02.291Z</time>
</trkpt>
<trkpt lat="31.3848000" lon="34.6207700">
<ele>103.979996</ele>
<time>2024-11-26T13:34:02.291Z</time>
</trkpt>
<trkpt lat="31.3851300" lon="34.6208300">
<ele>98.180000</ele>
<time>2024-11-26T13:34:02.291Z</time>
</trkpt>
<trkpt lat="31.3852700" lon="34.6207700">
<ele>94.940002</ele>
<time>2024-11-26T13:34:02.291Z</time>
</trkpt>
<trkpt lat="31.3854000" lon="34.6205700">
<ele>94.029999</ele>
<time>2024-11-26T13:34:02.291Z</time>
</trkpt>
<trkpt lat="31.3854000" lon="34.6204800">
<ele>94.970001</ele>
<time>2024-11-26T13:34:02.291Z</time>
</trkpt>
<trkpt lat="31.3854100" lon="34.6203800">
<ele>96.229996</ele>
<time>2024-11-26T13:34:02.291Z</time>
</trkpt>
<trkpt lat="31.3851900" lon="34.6202200">
<ele>100.769997</ele>
<time>2024-11-26T13:34:02.291Z</time>
</trkpt>
<trkpt lat="31.3849700" lon="34.6201700">
<ele>104.790001</ele>
<time>2024-11-26T13:34:02.291Z</time>
</trkpt>
<trkpt lat="31.3849300" lon="34.6201100">
<ele>106.119995</ele>
<time>2024-11-26T13:34:02.291Z</time>
</trkpt>
<trkpt lat="31.3848300" lon="34.6200300">
<ele>108.320000</ele>
<time>2024-11-26T13:34:02.291Z</time>
</trkpt>
<trkpt lat="31.3847100" lon="34.6197900">
<ele>108.920006</ele>
<time>2024-11-26T13:34:02.291Z</time>
</trkpt>
<trkpt lat="31.3846800" lon="34.6194800">
<ele>105.430000</ele>
<time>2024-11-26T13:34:02.291Z</time>
</trkpt>
<trkpt lat="31.3847500" lon="34.6191800">
<ele>102.299995</ele>
<time>2024-11-26T13:34:02.291Z</time>
</trkpt>
<trkpt lat="31.3848800" lon="34.6188300">
<ele>100.380005</ele>
<time>2024-11-26T13:34:02.291Z</time>
</trkpt>
<trkpt lat="31.3848800" lon="34.6186100">
<ele>99.579994</ele>
<time>2024-11-26T13:34:02.291Z</time>
</trkpt>
<trkpt lat="31.3846600" lon="34.6186600">
<ele>103.809998</ele>
<time>2024-11-26T13:34:02.291Z</time>
</trkpt>
<trkpt lat="31.3843900" lon="34.6188800">
<ele>105.049995</ele>
<time>2024-11-26T13:34:02.291Z</time>
</trkpt>
<trkpt lat="31.3841400" lon="34.6190900">
<ele>100.230003</ele>
<time>2024-11-26T13:34:02.291Z</time>
</trkpt>
<trkpt lat="31.3841000" lon="34.6190500">
<ele>100.380005</ele>
<time>2024-11-26T13:34:02.291Z</time>
</trkpt>
<trkpt lat="31.3841100" lon="34.6189100">
<ele>101.099998</ele>
<time>2024-11-26T13:34:02.291Z</time>
</trkpt>
<trkpt lat="31.3840200" lon="34.6187000">
<ele>102.810005</ele>
<time>2024-11-26T13:34:02.291Z</time>
</trkpt>
<trkpt lat="31.3841500" lon="34.6185000">
<ele>104.589996</ele>
<time>2024-11-26T13:34:02.291Z</time>
</trkpt>
<trkpt lat="31.3841000" lon="34.6182600">
<ele>104.959999</ele>
<time>2024-11-26T13:34:02.291Z</time>
</trkpt>
<trkpt lat="31.3839100" lon="34.6183200">
<ele>107.700005</ele>
<time>2024-11-26T13:34:02.291Z</time>
</trkpt>
<trkpt lat="31.3836900" lon="34.6182600">
<ele>106.989998</ele>
<time>2024-11-26T13:34:02.291Z</time>
</trkpt>
<trkpt lat="31.3836200" lon="34.6183900">
<ele>104.860001</ele>
<time>2024-11-26T13:34:02.291Z</time>
</trkpt>
<trkpt lat="31.3835100" lon="34.6184900">
<ele>104.439995</ele>
<time>2024-11-26T13:34:02.291Z</time>
</trkpt>
<trkpt lat="31.3833600" lon="34.6184300">
<ele>104.650002</ele>
<time>2024-11-26T13:34:02.291Z</time>
</trkpt>
<trkpt lat="31.3831800" lon="34.6185600">
<ele>102.430000</ele>
<time>2024-11-26T13:34:02.291Z</time>
</trkpt>
<trkpt lat="31.3831100" lon="34.6185800">
<ele>101.610001</ele>
<time>2024-11-26T13:34:02.291Z</time>
</trkpt>
<trkpt lat="31.3829300" lon="34.6185900">
<ele>101.099998</ele>
<time>2024-11-26T13:34:02.291Z</time>
</trkpt>
<trkpt lat="31.3820200" lon="34.6181400">
<ele>106.660004</ele>
<time>2024-11-26T13:34:02.291Z</time>
</trkpt>
<trkpt lat="31.3814000" lon="34.6174800">
<ele>100.019997</ele>
<time>2024-11-26T13:34:02.291Z</time>
</trkpt>
<trkpt lat="31.3809500" lon="34.6168600">
<ele>99.110001</ele>
<time>2024-11-26T13:34:02.291Z</time>
</trkpt>
<trkpt lat="31.3807300" lon="34.6166300">
<ele>93.459999</ele>
<time>2024-11-26T13:34:02.291Z</time>
</trkpt>
<trkpt lat="31.3805700" lon="34.6166700">
<ele>93.150002</ele>
<time>2024-11-26T13:34:02.291Z</time>
</trkpt>
<trkpt lat="31.3803200" lon="34.6164400">
<ele>87.150002</ele>
<time>2024-11-26T13:34:02.291Z</time>
</trkpt>
<trkpt lat="31.3800900" lon="34.6158600">
<ele>86.870003</ele>
<time>2024-11-26T13:34:02.291Z</time>
</trkpt>
<trkpt lat="31.3799900" lon="34.6158900">
<ele>86.599998</ele>
<time>2024-11-26T13:34:02.291Z</time>
</trkpt>
<trkpt lat="31.3792600" lon="34.6162200">
<ele>83.029999</ele>
<time>2024-11-26T13:34:02.291Z</time>
</trkpt>
<trkpt lat="31.3789200" lon="34.6163500">
<ele>91.250000</ele>
<time>2024-11-26T13:34:02.291Z</time>
</trkpt>
<trkpt lat="31.3787800" lon="34.6163500">
<ele>91.129997</ele>
<time>2024-11-26T13:34:02.291Z</time>
</trkpt>
<trkpt lat="31.3786300" lon="34.6163000">
<ele>89.369995</ele>
<time>2024-11-26T13:34:02.291Z</time>
</trkpt>
<trkpt lat="31.3785900" lon="34.6163100">
<ele>89.150002</ele>
<time>2024-11-26T13:34:02.291Z</time>
</trkpt>
<trkpt lat="31.3784800" lon="34.6163100">
<ele>87.669998</ele>
<time>2024-11-26T13:34:02.291Z</time>
</trkpt>
<trkpt lat="31.3784100" lon="34.6163200">
<ele>86.599998</ele>
<time>2024-11-26T13:34:02.291Z</time>
</trkpt>
<trkpt lat="31.3783800" lon="34.6163400">
<ele>85.830002</ele>
<time>2024-11-26T13:34:02.291Z</time>
</trkpt>
<trkpt lat="31.3782100" lon="34.6164200">
<ele>84.760002</ele>
<time>2024-11-26T13:34:02.291Z</time>
</trkpt>
<trkpt lat="31.3778300" lon="34.6166500">
<ele>80.629997</ele>
<time>2024-11-26T13:34:02.291Z</time>
</trkpt>
<trkpt lat="31.3777300" lon="34.6167000">
<ele>80.949997</ele>
<time>2024-11-26T13:34:02.291Z</time>
</trkpt>
<trkpt lat="31.3770300" lon="34.6162500">
<ele>97.579994</ele>
<time>2024-11-26T13:34:02.291Z</time>
</trkpt>
<trkpt lat="31.3767600" lon="34.6162400">
<ele>99.220001</ele>
<time>2024-11-26T13:34:02.291Z</time>
</trkpt>
<trkpt lat="31.3767100" lon="34.6162400">
<ele>99.389999</ele>
<time>2024-11-26T13:34:02.291Z</time>
</trkpt>
<trkpt lat="31.3765700" lon="34.6162300">
<ele>100.570000</ele>
<time>2024-11-26T13:34:02.291Z</time>
</trkpt>
<trkpt lat="31.3765400" lon="34.6162000">
<ele>100.879997</ele>
<time>2024-11-26T13:34:02.291Z</time>
</trkpt>
<trkpt lat="31.3764000" lon="34.6163600">
<ele>102.739998</ele>
<time>2024-11-26T13:34:02.291Z</time>
</trkpt>
<trkpt lat="31.3764000" lon="34.6163600">
<ele>102.739998</ele>
<time>2024-11-26T13:34:02.291Z</time>
</trkpt>
<trkpt lat="31.3763100" lon="34.6164500">
<ele>102.239998</ele>
<time>2024-11-26T13:34:02.291Z</time>
</trkpt>
<trkpt lat="31.3764000" lon="34.6165900">
<ele>100.060005</ele>
<time>2024-11-26T13:34:02.291Z</time>
</trkpt>
<trkpt lat="31.3764500" lon="34.6165500">
<ele>100.309998</ele>
<time>2024-11-26T13:34:02.291Z</time>
</trkpt>
</trkseg>
</trk>
</gpx>
